GFSWCAN_850_temp_000.txt.gz
Temp
6 6 6 6 6 6 6 6 6 7 7 7 8 8 9 9 10 10 10 10 11 11 11 11 11 11 11 11 4 10 9 8 3 3 3 3 5 3 4 6 6 6 3 4 3 5 6 9 9 7 8 8 8 8
4 6 6 6 6 6 6 6 6 7 7 7 8 8 8 8 9 9 9 10 10 10 10 10 10 11 10 10 10 10 10 10 9 2 2 -0 3 3 1 6 8 7 6 5 5 5 8 9 9 9 8 8 8 6
4 4 5 6 6 6 6 6 7 7 7 7 7 7 7 8 8 8 8 9 9 9 9 9 10 10 10 10 9 9 9 10 10 10 6 2 4 3 5 5 4 6 9 5 6 8 9 9 9 9 8 7 5 4
3 4 5 5 6 6 6 6 6 7 6 7 7 7 7 7 7 7 8 8 8 7 7 9 10 10 10 9 9 9 9 9 9 9 8 2 3 5 4 6 5 7 6 6 6 7 8 8 9 7 6 5 4 3
4 3 3 4 5 5 6 6 6 7 7 7 7 7 7 7 7 6 7 7 7 7 5 7 9 10 9 9 9 9 9 9 8 8 4 3 4 4 3 2 4 7 7 5 6 8 7 7 6 5 5 3 1 0
3 4 3 4 4 4 5 5 6 6 6 6 7 7 6 6 6 6 6 7 7 6 6 3 7 7 8 8 8 8 8 7 7 7 6 7 8 7 3 4 9 9 9 8 7 7 7 6 5 3 3 3 4 4
2 3 4 4 4 4 5 5 6 6 6 6 6 6 6 6 5 5 6 7 7 6 5 5 5 5 5 5 7 7 7 7 6 7 6 7 7 6 2 6 8 8 8 8 7 6 5 3 2 1 1 3 4 4
2 2 2 4 4 4 5 5 5 5 5 5 5 6 6 6 5 5 5 6 6 5 5 3 3 4 5 5 5 5 5 5 6 5 4 5 5 5 3 7 8 8 8 7 6 4 3 2 2 3 3 2 2 3
2 2 2 3 3 3 3 3 4 5 5 5 4 5 5 4 4 4 5 4 4 5 4 2 2 3 3 4 4 4 4 2 3 2 3 4 1 4 4 6 7 7 6 6 5 4 3 3 3 3 3 3 2 2
1 2 2 1 2 2 3 3 3 4 4 3 4 4 4 3 3 3 3 3 4 3 3 1 2 2 3 3 1 2 1 1 2 1 2 1 4 6 7 7 7 6 5 5 4 3 3 2 2 2 2 1 1 1
1 1 1 1 2 2 2 2 2 2 3 3 3 2 2 2 2 2 2 1 1 0 0 0 1 2 2 1 1 1 1 0 1 -1 2 -2 1 3 7 7 6 5 4 4 3 3 3 2 2 2 2 1 1 -0
1 1 1 1 1 1 1 1 1 2 2 2 3 1 1 1 1 1 0 -0 -0 0 -0 -0 1 2 1 1 1 -0 -0 -1 1 0 -0 1 -1 4 5 4 4 4 4 4 3 3 2 2 1 1 0 -0 -1 -1
1 1 0 1 1 1 1 1 1 1 2 1 1 1 1 0 1 0 1 0 -0 0 0 1 0 1 0 0 -1 -1 -0 -1 -0 0 1 -2 3 4 4 4 4 3 3 3 3 2 2 1 1 -0 -1 -1 -1 -2
1 0 -0 0 0 1 0 0 1 0 1 1 1 -1 -1 -2 -2 -2 -2 -1 -0 0 1 1 -0 -1 -1 -2 -0 -1 -3 -3 -2 -0 -2 -3 2 3 3 3 2 2 2 2 1 1 1 0 0 -0 -1 -1 -2 -2
0 -1 -1 -1 -0 0 0 0 0 -0 1 0 0 -2 -4 -1 -1 -1 -0 -0 0 0 0 -0 -1 -0 -3 -5 -6 -6 -5 -0 -1 -3 -5 2 1 1 1 1 1 1 1 1 1 1 0 0 -0 -0 -1 -1 -2 -3
-1 -1 -1 -1 -1 -0 -0 -1 -0 -0 0 -0 -1 -4 -2 -1 -2 -1 -1 -1 -1 -0 -0 0 -3 -5 -5 -6 -6 -6 -5 -4 -4 -5 1 1 1 0 0 0 0 0 0 -0 -0 -0 -0 -0 -1 -1 -1 -1 -2 -3
-2 -1 -1 -1 -1 -1 -1 -1 -1 -1 -1 -1 -2 -1 -1 -1 -1 -2 -1 -0 -1 -0 -4 -2 -6 -3 -4 -8 -7 -4 -5 -6 1 1 1 0 -0 -0 -0 -0 -0 -1 -1 -1 -1 -1 -1 -1 -1 -2 -2 -2 -3 -4
-1 -1 -2 -2 -2 -2 -2 -2 -2 -2 -2 -2 -2 -1 -1 -1 -1 -2 -1 -1 -1 -1 -1 -4 -0 -5 -7 -7 -7 -5 1 1 1 1 1 0 -0 -0 -0 -1 -1 -1 -1 -2 -2 -2 -2 -2 -2 -2 -2 -3 -3 -3
-1 -1 -2 -2 -2 -2 -2 -3 -2 -2 -2 -2 -2 -1 -1 -1 -1 -1 -1 -1 -1 -1 -1 -1 -7 -9 -7 -3 -0 2 1 0 -0 -0 -0 -1 -1 -1 -1 -1 -1 -1 -2 -2 -2 -2 -3 -3 -3 -3 -3 -3 -3 -4
-3 -3 -3 -3 -3 -3 -3 -3 -3 -3 -2 -2 -2 -2 -2 -2 -1 -2 -2 -2 -2 -2 -2 -3 -6 -1 -0 1 1 0 -0 -0 -1 -1 -1 -1 -1 -1 -1 -1 -1 -2 -2 -2 -3 -3 -3 -3 -3 -3 -4 -3 -4 -4
-3 -3 -3 -4 -3 -3 -3 -3 -4 -3 -3 -2 -2 -2 -2 -2 -2 -2 -3 -3 -3 -3 -3 -2 -1 -1 -0 -0 -0 -1 -1 -1 -1 -1 -1 -1 -1 -1 -1 -1 -2 -2 -3 -4 -4 -4 -4 -4 -4 -4 -4 -4 -4 -4
-4 -4 -4 -4 -3 -3 -3 -3 -3 -3 -3 -3 -3 -2 -2 -2 -2 -2 -2 -4 -3 -3 -3 -1 -0 -0 -0 -1 -0 -1 -1 -1 -1 -1 -1 -1 -1 -1 -2 -2 -3 -3 -3 -4 -4 -5 -5 -5 -5 -5 -4 -4 -5 -5
-4 -4 -4 -4 -4 -4 -4 -4 -4 -3 -5 -3 -4 -4 -4 -3 -2 -2 -3 -3 -2 -2 -0 -1 -0 -1 -1 -1 -1 -1 -1 -1 -1 -1 -1 -1 -2 -2 -2 -2 -2 -4 -4 -3 -5 -5 -5 -5 -5 -5 -5 -4 -5 -5
-4 -4 -3 -4 -5 -6 -5 -4 -4 -3 -3 -5 -10 -10 -8 -2 -2 -3 -9 -2 -1 -0 -1 -1 -1 -1 -1 -1 -1 -1 -1 -1 -1 -1 -1 -2 -2 -2 -2 -2 -4 -6 -5 -5 -5 -5 -5 -4 -4 -5 -5 -5 -5 -5
-4 -5 -5 -5 -6 -5 -5 -9 -5 -7 -9 -11 -11 -11 -5 -1 -9 -12 -10 -1 -1 -0 -0 -0 -0 -1 -1 -1 -1 -1 -1 -1 -1 -2 -2 -2 -3 -3 -2 -3 -5 -5 -5 -5 -5 -5 -5 -5 -5 -5 -5 -5 -5 -5
-7 -4 -5 -5 -5 -7 -8 -11 -12 -10 -13 -11 -10 -2 -2 -8 -10 -8 -6 -1 -0 -0 -0 -0 -0 -0 -1 -1 -1 -1 -1 -2 -2 -2 -2 -3 -4 -5 -5 -6 -6 -5 -5 -5 -5 -5 -5 -5 -5 -5 -5 -5 -5 -6
-8 -8 -4 -4 -3 -3 -5 -4 -4 -7 -12 -9 -11 -9 -11 -7 -9 -6 -0 -0 -0 -0 -1 -1 -1 -1 -1 -1 -1 -1 -1 -2 -2 -2 -3 -3 -5 -6 -6 -6 -6 -5 -6 -6 -5 -5 -5 -5 -5 -5 -5 -6 -6 -7
-3 -4 -6 -4 -3 -3 -6 -9 -12 -10 -10 -2 -4 -9 -7 -8 -7 -1 -0 -0 -1 -1 -2 -2 -2 -2 -2 -2 -2 -2 -3 -3 -4 -4 -4 -4 -5 -5 -6 -6 -6 -6 -6 -5 -5 -5 -6 -5 -5 -5 -5 -5 -6 -7
-5 -4 -3 -4 -3 -3 -3 -6 -6 -2 -1 -1 -7 -10 -4 -1 -1 -1 -1 -1 -1 -2 -2 -2 -2 -2 -3 -3 -3 -3 -4 -5 -5 -5 -6 -7 -6 -6 -6 -6 -6 -6 -7 -6 -6 -6 -6 -6 -6 -6 -5 -6 -6 -6
-4 -3 -3 -4 -8 -8 -2 -2 -1 -1 -1 -2 -2 -2 -2 -2 -2 -2 -2 -2 -3 -3 -3 -3 -3 -4 -4 -5 -5 -5 -6 -6 -6 -7 -7 -7 -7 -7 -7 -7 -7 -6 -6 -6 -6 -7 -7 -6 -6 -6 -6 -6 -6 -7
-3 -3 -3 -3 -5 -3 -2 -2 -2 -2 -2 -3 -2 -3 -3 -3 -2 -3 -3 -3 -4 -4 -4 -5 -5 -5 -5 -6 -6 -6 -7 -7 -7 -7 -7 -7 -7 -8 -7 -7 -7 -7 -7 -7 -7 -7 -7 -7 -7 -7 -7 -7 -7 -8
-3 -3 -3 -9 -4 -3 -3 -3 -3 -3 -4 -3 -4 -3 -4 -4 -4 -4 -5 -6 -6 -6 -6 -7 -7 -7 -7 -7 -7 -8 -8 -8 -8 -8 -8 -8 -8 -8 -8 -8 -8 -8 -8 -8 -8 -8 -8 -8 -8 -8 -8 -8 -9 -9
-4 -4 -4 -4 -5 -4 -3 -3 -4 -4 -3 -4 -4 -4 -4 -5 -4 -9 -10 -9 -9 -9 -9 -8 -8 -9 -9 -9 -9 -9 -9 -9 -9 -9 -9 -9 -9 -9 -9 -9 -9 -9 -9 -9 -9 -9 -9 -9 -9 -9 -9 -10 -10 -10

GFSWCAN_850_temp_006.txt.gz
Temp
4 5 5 5 5 5 6 6 7 7 7 8 8 9 9 10 11 11 12 12 12 12 12 11 12 12 10 10 4 8 7 6 2 3 2 2 -2 2 4 5 4 5 3 1 2 4 4 7 8 7 8 9 7 7
4 5 5 5 5 5 5 6 6 6 7 7 7 8 8 9 10 11 11 11 11 11 11 11 11 11 11 11 11 10 9 9 8 2 2 -0 1 0 2 5 5 5 5 5 6 4 7 8 7 8 8 6 6 5
4 4 4 6 5 5 5 5 6 6 6 7 7 7 8 8 9 10 10 10 10 10 11 10 11 11 10 10 10 11 9 10 10 9 5 0 2 1 5 4 3 5 7 5 6 7 7 8 8 7 5 4 3 2
3 3 4 5 6 5 5 5 5 6 6 6 7 7 7 7 8 8 9 9 10 9 8 9 10 10 10 10 10 10 10 9 9 8 7 1 3 5 3 5 4 5 6 5 5 7 7 7 6 5 4 3 3 2
2 3 3 4 5 5 5 5 5 6 6 6 6 6 6 7 7 8 8 8 8 9 6 9 9 10 9 9 9 9 8 8 8 6 4 3 4 3 3 2 3 6 5 4 7 8 6 5 5 4 3 2 1 3
2 2 3 4 5 5 5 5 5 6 6 6 6 6 6 6 6 7 7 7 8 8 8 2 7 8 8 8 8 8 7 7 6 7 5 6 8 7 3 4 8 8 8 8 7 6 6 5 3 2 2 2 2 2
1 1 1 3 3 5 5 5 5 5 5 6 6 6 6 6 6 6 7 7 8 6 6 4 4 5 5 6 7 7 7 6 6 6 5 6 7 6 2 5 7 8 8 7 7 6 4 3 2 2 1 2 2 2
1 1 0 1 2 2 4 5 5 5 5 5 6 6 6 6 6 6 6 7 7 5 6 3 3 5 5 5 4 4 4 4 5 5 4 4 4 4 4 6 6 6 6 6 5 4 3 2 1 1 1 1 1 1
1 2 1 1 1 2 2 3 4 5 5 5 5 6 5 5 5 5 5 5 6 5 5 2 3 3 3 3 4 3 3 2 2 2 2 3 1 4 3 3 3 5 4 3 3 2 2 1 1 1 1 1 1 1
1 2 2 2 1 2 1 1 2 3 4 5 5 4 3 3 4 5 4 4 4 3 3 2 3 2 4 3 2 3 2 1 2 1 1 1 2 3 2 2 3 3 3 2 2 2 2 1 2 2 1 1 0 0
1 2 2 2 1 1 2 2 2 2 3 3 3 3 2 2 3 3 2 2 2 1 1 1 2 2 2 2 1 2 1 0 -1 -2 1 0 -0 1 2 2 2 2 2 2 2 1 2 1 1 1 0 0 -0 -1
1 1 2 3 1 2 2 2 2 2 3 3 3 2 2 1 2 2 1 -0 0 1 -0 0 1 1 1 2 1 -0 -0 -1 0 -2 -1 -2 -2 1 2 2 2 2 2 1 1 1 1 1 0 -0 -1 -1 -1 -1
0 1 2 2 1 1 1 2 2 2 3 3 4 2 2 1 1 1 1 1 0 -0 -0 -0 -0 1 0 1 -1 -1 -1 -2 -2 -3 -2 -3 1 1 1 1 1 1 1 1 1 0 -0 -1 -1 -1 -1 -1 -2 -2
0 1 1 1 1 1 1 1 2 2 2 3 2 1 -0 -0 -0 -0 -0 -3 1 -0 -0 0 -1 -1 -1 -1 -2 -3 -4 -4 -1 -3 -4 -4 1 1 1 0 0 -0 -0 -0 -1 -1 -1 -1 -1 -1 -2 -2 -3 -3
-0 0 -0 0 0 1 1 1 1 1 2 2 1 -2 -1 -2 -1 -1 -0 -0 -0 0 0 -1 -2 -1 -4 -4 -4 -5 -3 -2 -2 -4 -7 1 1 0 -0 -0 -0 -0 -1 -1 -1 -1 -2 -2 -2 -2 -2 -3 -3 -3
-1 -1 -0 -0 -0 0 0 1 1 1 1 0 -1 -5 -2 -2 -2 -1 -1 -0 -0 -0 -1 -0 -5 -4 -5 -6 -6 -4 -5 -5 -5 -6 1 0 -0 -0 -1 -1 -1 -1 -1 -1 -1 -2 -2 -2 -2 -3 -3 -3 -3 -4
-1 -0 -1 -1 -1 -0 0 -0 -0 0 0 -1 -2 -3 -1 -2 -1 -0 -0 -0 -0 -1 -2 -2 -5 -4 -6 -9 -7 -6 -7 -7 -0 1 -0 -1 -1 -1 -1 -1 -1 -1 -1 -2 -2 -2 -2 -2 -3 -3 -3 -3 -4 -4
-1 -1 -1 -1 -1 -1 -1 -1 -0 -1 -2 -2 -2 -2 -2 -2 -2 -1 -1 -0 -0 -0 -0 -2 -2 -8 -9 -7 -8 -7 -1 1 0 -0 -1 -1 -1 -1 -1 -1 -1 -1 -2 -2 -2 -2 -2 -3 -4 -4 -5 -5 -4 -4
-1 -1 -2 -1 -1 -1 -1 -2 -1 -2 -2 -2 -2 -2 -2 -2 -1 -1 -1 -1 -1 -1 -1 -2 -9 -8 -7 -4 -1 0 0 -0 -1 -1 -1 -1 -1 -1 -2 -2 -2 -2 -2 -2 -2 -2 -2 -3 -5 -6 -5 -5 -5 -4
-2 -2 -2 -2 -2 -2 -2 -3 -2 -2 -2 -2 -2 -2 -2 -2 -2 -2 -2 -1 -2 -2 -2 -4 -5 -2 -1 0 0 -0 -0 -1 -1 -2 -1 -1 -2 -2 -2 -2 -2 -2 -2 -2 -2 -2 -2 -2 -4 -5 -5 -5 -5 -5
-2 -3 -2 -2 -3 -2 -2 -3 -3 -3 -3 -3 -3 -2 -2 -3 -2 -2 -2 -3 -3 -2 -3 -1 -1 -0 -0 -0 -0 -1 -1 -1 -1 -2 -2 -2 -2 -2 -2 -2 -2 -2 -2 -3 -3 -3 -4 -6 -5 -5 -5 -5 -5 -5
-3 -3 -3 -3 -3 -3 -3 -4 -3 -4 -3 -3 -3 -3 -3 -3 -4 -5 -5 -5 -5 -3 -2 -0 0 0 -0 -0 -0 -1 -1 -1 -1 -2 -2 -2 -2 -2 -2 -2 -2 -2 -3 -3 -3 -4 -6 -6 -6 -5 -5 -5 -5 -5
-3 -3 -4 -4 -3 -3 -5 -4 -4 -4 -5 -4 -4 -5 -4 -4 -4 -5 -5 -5 -4 0 1 -0 -0 -1 -1 -1 -1 -1 -1 -1 -2 -2 -2 -2 -2 -2 -2 -2 -2 -3 -3 -3 -4 -5 -7 -5 -5 -5 -5 -5 -5 -5
-3 -3 -4 -4 -4 -6 -5 -4 -4 -4 -5 -6 -11 -10 -10 -4 -5 -6 -8 -4 -1 0 -0 -1 -1 -1 -1 -1 -1 -1 -1 -1 -1 -1 -1 -2 -2 -2 -2 -2 -2 -3 -4 -4 -4 -5 -6 -6 -6 -6 -6 -6 -6 -6
-3 -5 -4 -6 -6 -7 -7 -10 -8 -6 -5 -12 -11 -12 -7 -5 -11 -13 -11 -3 -1 -0 -0 -1 -1 -1 -1 -1 -1 -1 -1 -2 -2 -2 -1 -1 -1 -2 -2 -2 -3 -4 -4 -5 -6 -7 -7 -7 -7 -7 -6 -5 -6 -6
-9 -6 -5 -5 -6 -9 -11 -10 -8 -9 -16 -13 -10 -6 -7 -11 -11 -9 -8 -1 -0 -1 -1 -1 -1 -1 -1 -1 -1 -2 -2 -2 -2 -2 -2 -2 -2 -2 -2 -3 -4 -4 -6 -7 -7 -7 -7 -8 -8 -7 -7 -7 -6 -6
-9 -6 -6 -6 -5 -6 -8 -8 -8 -10 -15 -12 -13 -12 -14 -10 -11 -7 -1 -0 -0 -1 -1 -1 -1 -1 -2 -2 -2 -2 -2 -3 -3 -3 -3 -3 -3 -4 -5 -5 -5 -6 -7 -7 -7 -8 -8 -8 -8 -8 -7 -7 -6 -6
-4 -6 -7 -6 -6 -5 -8 -11 -15 -12 -12 -5 -7 -11 -9 -9 -8 -1 -1 -1 -2 -2 -2 -2 -2 -2 -3 -3 -3 -3 -3 -4 -4 -4 -4 -5 -5 -5 -6 -6 -7 -7 -7 -8 -8 -8 -8 -8 -8 -8 -7 -7 -7 -6
-5 -5 -5 -7 -6 -5 -5 -6 -6 -3 -2 -3 -8 -12 -5 -2 -2 -2 -2 -2 -3 -3 -3 -3 -3 -3 -3 -3 -4 -4 -5 -5 -5 -6 -6 -6 -6 -7 -7 -7 -7 -7 -7 -7 -7 -7 -8 -8 -8 -8 -8 -8 -7 -7
-6 -6 -5 -6 -8 -8 -3 -3 -2 -2 -2 -2 -2 -3 -3 -3 -3 -3 -4 -4 -4 -4 -4 -5 -5 -5 -6 -6 -6 -5 -5 -6 -6 -6 -7 -7 -8 -8 -8 -8 -8 -8 -8 -8 -8 -8 -8 -8 -8 -8 -8 -8 -8 -8
-5 -6 -5 -5 -6 -3 -3 -3 -3 -3 -3 -3 -3 -4 -4 -4 -5 -6 -7 -8 -8 -8 -8 -8 -8 -8 -8 -8 -8 -8 -8 -8 -8 -8 -8 -8 -8 -9 -9 -9 -9 -9 -9 -9 -9 -9 -9 -9 -9 -9 -9 -9 -9 -9
-5 -5 -5 -12 -5 -3 -4 -4 -4 -4 -4 -4 -4 -4 -4 -5 -7 -10 -12 -11 -11 -10 -11 -10 -10 -10 -10 -10 -10 -10 -10 -10 -10 -10 -10 -10 -10 -10 -10 -9 -10 -9 -9 -9 -9 -9 -10 -10 -10 -10 -10 -10 -10 -11
-6 -6 -6 -6 -5 -5 -6 -5 -5 -6 -5 -5 -5 -6 -7 -9 -13 -14 -14 -14 -14 -13 -12 -11 -11 -11 -11 -11 -11 -11 -11 -11 -11 -11 -11 -11 -11 -10 -10 -10 -10 -10 -10 -10 -10 -10 -11 -11 -11 -11 -12 -12 -12 -12

GFSWCAN_850_temp_009.txt.gz
Temp
4 5 6 6 5 5 6 6 7 7 8 8 9 10 10 10 11 12 12 12 13 13 11 11 12 12 10 10 6 7 7 6 3 4 4 4 4 5 5 6 5 7 6 4 3 5 5 7 8 7 7 6 6 5
4 5 5 5 5 5 5 6 6 7 7 7 8 9 9 10 10 11 11 12 12 12 11 11 11 11 11 12 11 9 9 8 8 3 2 2 3 1 4 7 5 6 7 7 6 7 7 8 8 7 6 4 4 3
3 3 4 5 5 5 5 5 6 6 6 7 7 8 8 9 9 10 10 11 11 11 10 10 10 10 10 11 11 11 9 10 9 9 4 2 4 3 4 4 4 5 6 6 5 7 7 9 7 6 4 4 3 2
3 3 3 4 5 5 5 5 5 6 6 6 6 7 8 8 8 9 9 10 10 10 9 9 9 10 10 10 10 10 10 9 9 8 5 1 3 5 3 6 5 7 5 5 5 7 7 7 6 5 4 3 2 2
2 3 3 4 4 5 5 5 5 5 6 6 6 6 7 7 7 8 8 9 9 10 7 9 9 9 9 10 9 9 9 8 8 6 3 3 4 3 3 3 4 6 6 5 6 8 6 5 4 3 3 2 2 2
2 2 2 3 4 4 5 5 5 5 5 5 6 6 6 6 6 7 7 8 8 9 9 3 6 7 8 8 8 8 8 7 7 7 5 6 8 7 3 4 6 7 8 8 7 5 4 4 3 2 2 2 2 2
1 1 2 2 3 4 4 5 5 5 5 5 5 6 6 6 6 6 7 7 8 7 8 6 4 5 6 6 6 6 6 6 6 6 5 6 6 6 2 4 7 7 6 6 5 5 3 2 1 1 1 1 1 2
1 1 1 1 2 3 4 5 5 6 5 5 5 6 6 6 6 6 6 7 7 7 7 2 2 4 4 4 4 4 4 4 4 5 4 4 4 4 4 4 4 5 5 5 4 4 3 1 1 1 2 2 2 2
1 1 1 2 1 1 2 4 5 5 5 5 5 5 5 5 5 6 6 6 7 7 5 3 3 4 4 3 3 3 3 2 3 2 2 3 2 4 2 2 2 3 3 1 1 1 1 2 2 2 2 1 1 0
1 1 1 2 2 0 1 2 4 5 5 5 5 5 4 4 5 5 5 5 5 4 3 3 3 3 4 2 2 3 2 1 2 1 1 1 2 1 1 1 1 2 2 2 2 2 2 2 1 1 0 -0 -1 -1
0 1 1 2 2 2 1 1 2 3 3 3 3 2 2 3 3 3 2 2 1 1 1 2 2 2 3 2 2 2 1 0 2 1 2 1 2 1 1 1 1 2 2 1 1 1 1 0 0 -0 -0 -0 -1 -1
-0 0 1 1 2 1 2 1 1 2 2 1 1 0 1 1 0 0 1 -0 1 1 0 1 1 2 1 2 1 -1 1 -0 -0 -2 0 1 0 0 1 1 1 1 1 1 1 1 0 -0 -0 -1 -1 -2 -2 -2
-1 -0 1 1 1 1 1 1 1 1 2 1 1 0 0 0 1 2 2 1 1 -0 -0 0 -0 1 0 1 -0 -1 -1 -0 -3 -1 -0 -1 0 1 1 1 1 0 0 0 0 -0 -1 -1 -1 -2 -2 -2 -2 -2
-1 -0 1 0 1 1 1 2 2 2 1 2 2 1 0 0 0 -2 -1 -1 -0 0 -0 0 -1 -0 -1 -1 -2 -1 -3 -4 -1 -2 -1 -2 0 1 0 0 0 0 0 -0 -1 -1 -2 -2 -2 -2 -2 -2 -3 -3
-1 -1 -0 -0 0 0 1 1 1 2 2 2 2 -1 -1 -2 -1 -1 -0 -0 -0 -0 0 -0 -2 -1 -4 -3 -3 -3 -2 -2 -2 -1 -2 0 0 0 0 -0 -0 -0 -1 -1 -1 -2 -2 -2 -2 -2 -2 -2 -3 -3
-1 -1 -0 -0 0 0 1 1 1 2 2 1 -1 -3 -3 -2 -2 -1 -1 -0 -0 -0 -0 -1 -4 -2 -3 -4 -3 -3 -3 -3 -2 -4 1 0 0 -0 -1 -1 -1 -1 -1 -2 -2 -2 -2 -2 -2 -2 -2 -3 -3 -4
-1 -1 -1 -0 0 0 0 0 1 1 1 -0 -3 -3 -2 -2 -1 -0 -0 -1 -0 -0 -2 -3 -2 -2 -6 -5 -4 -4 -4 -4 -0 0 0 -0 -1 -1 -0 -0 -1 -1 -2 -2 -2 -2 -2 -2 -2 -2 -2 -2 -4 -5
-1 -1 -1 -1 -0 -1 -1 -0 -0 -0 -1 -2 -3 -3 -2 -1 -1 -1 -0 -1 -1 -0 -0 -2 -3 -6 -5 -4 -4 -5 -1 0 0 0 -0 -1 -1 -1 -1 -1 -1 -2 -2 -2 -2 -2 -2 -2 -2 -2 -3 -4 -5 -5
-1 -1 -1 -1 -1 -1 -1 -1 -1 -2 -3 -3 -2 -2 -2 -2 -2 -1 -1 -1 -1 -1 0 -2 -7 -5 -4 -4 -1 0 0 0 -0 -1 -1 -1 -1 -1 -1 -2 -2 -2 -2 -2 -2 -2 -2 -3 -3 -3 -4 -5 -5 -6
-1 -1 -1 -1 -2 -0 -1 -2 -1 -1 -2 -3 -3 -3 -2 -2 -2 -2 -2 -2 -2 -1 -2 -3 -4 -2 -0 1 1 -0 -0 -1 -1 -2 -1 -1 -1 -2 -2 -2 -2 -2 -2 -2 -2 -2 -3 -3 -3 -4 -5 -6 -6 -5
-2 -2 -2 -2 -2 -2 -2 -3 -3 -3 -3 -3 -3 -3 -3 -3 -3 -3 -3 -4 -3 -3 -4 -1 -1 0 0 -0 -0 -1 -1 -1 -1 -2 -2 -2 -2 -2 -2 -2 -2 -2 -2 -2 -2 -3 -3 -4 -5 -6 -7 -6 -6 -6
-3 -2 -2 -2 -2 -3 -3 -4 -3 -4 -3 -4 -3 -3 -3 -4 -5 -6 -5 -5 -5 -4 -2 -1 0 0 -0 -1 -1 -1 -1 -1 -2 -2 -2 -2 -2 -2 -2 -2 -2 -2 -2 -2 -3 -3 -4 -4 -6 -6 -6 -6 -7 -6
-3 -3 -2 -3 -3 -3 -5 -4 -4 -4 -6 -5 -4 -5 -5 -5 -5 -6 -6 -5 -5 -1 -0 -1 -0 -1 -1 -1 -1 -1 -1 -2 -2 -1 -1 -1 -2 -2 -2 -2 -2 -2 -2 -2 -3 -4 -4 -5 -6 -7 -7 -6 -6 -7
-3 -3 -4 -4 -4 -7 -5 -5 -5 -5 -5 -7 -11 -9 -10 -6 -7 -8 -7 -7 -1 -0 -0 -1 -1 -1 -1 -1 -1 -1 -1 -2 -2 -2 -2 -2 -2 -1 -1 -1 -2 -2 -2 -3 -4 -4 -5 -6 -7 -7 -8 -7 -7 -7
-3 -5 -4 -6 -6 -7 -11 -9 -8 -5 -6 -8 -9 -10 -8 -7 -11 -10 -8 -4 -1 -0 -1 -1 -1 -1 -1 -1 -1 -1 -2 -2 -2 -2 -2 -2 -2 -2 -2 -2 -2 -3 -4 -4 -5 -6 -7 -7 -8 -8 -8 -8 -8 -8
-8 -6 -6 -6 -7 -9 -11 -8 -8 -8 -11 -11 -9 -9 -8 -11 -11 -8 -7 -1 -0 -1 -1 -1 -1 -2 -1 -1 -1 -2 -2 -3 -3 -3 -2 -3 -3 -3 -3 -3 -3 -4 -5 -5 -6 -7 -7 -8 -8 -8 -8 -8 -8 -8
-8 -6 -6 -6 -6 -6 -9 -10 -10 -11 -11 -10 -13 -13 -14 -10 -11 -6 -2 -1 -1 -2 -2 -2 -2 -2 -2 -2 -2 -2 -3 -3 -3 -3 -3 -4 -4 -4 -5 -5 -5 -6 -6 -7 -7 -8 -8 -9 -9 -9 -8 -8 -8 -8
-5 -6 -9 -7 -6 -6 -10 -12 -15 -12 -11 -6 -8 -10 -9 -9 -7 -2 -1 -2 -2 -3 -3 -3 -3 -3 -3 -3 -3 -3 -4 -4 -4 -4 -5 -6 -6 -6 -6 -6 -7 -7 -7 -7 -8 -9 -9 -9 -9 -9 -8 -8 -8 -8
-5 -5 -5 -8 -8 -7 -6 -7 -7 -4 -3 -4 -8 -12 -5 -2 -3 -3 -3 -3 -3 -4 -4 -4 -4 -4 -4 -5 -5 -5 -5 -5 -6 -6 -6 -6 -6 -7 -7 -7 -8 -8 -8 -8 -8 -9 -9 -9 -9 -9 -9 -9 -9 -9
-6 -6 -6 -8 -10 -10 -3 -3 -3 -2 -2 -3 -3 -3 -3 -4 -5 -6 -6 -7 -6 -7 -8 -8 -9 -9 -9 -9 -8 -8 -8 -8 -8 -8 -8 -8 -8 -8 -8 -8 -8 -9 -9 -9 -9 -9 -9 -9 -9 -9 -9 -9 -9 -9
-6 -7 -6 -6 -6 -4 -3 -3 -3 -3 -4 -4 -4 -4 -4 -6 -8 -9 -10 -10 -11 -11 -11 -10 -10 -11 -11 -11 -10 -10 -10 -10 -10 -10 -10 -10 -10 -10 -10 -10 -9 -9 -9 -9 -9 -9 -9 -9 -10 -10 -10 -10 -11 -11
-6 -7 -7 -11 -5 -4 -4 -4 -4 -5 -5 -4 -4 -5 -6 -7 -10 -12 -14 -13 -12 -12 -12 -13 -12 -12 -13 -13 -13 -12 -12 -12 -12 -11 -11 -11 -11 -11 -11 -11 -10 -10 -10 -10 -10 -10 -11 -11 -11 -11 -11 -12 -12 -12
-9 -9 -9 -8 -7 -5 -6 -6 -6 -6 -6 -6 -7 -8 -9 -11 -15 -16 -16 -15 -15 -15 -15 -15 -14 -14 -14 -14 -13 -13 -13 -13 -13 -13 -13 -12 -12 -12 -12 -11 -11 -11 -11 -11 -11 -12 -12 -12 -12 -12 -12 -13 -13 -13

GFSWCAN_850_temp_012.txt.gz
Temp
4 5 5 5 5 5 6 7 7 8 9 9 9 10 11 11 11 12 13 13 14 13 11 11 12 12 11 12 12 9 10 8 7 6 6 7 7 10 10 11 10 10 8 6 6 6 7 10 10 8 9 8 5 4
3 4 5 5 5 5 5 6 6 7 8 9 9 9 10 10 11 11 12 12 13 13 11 11 12 12 12 12 11 8 11 10 10 8 5 4 5 4 7 9 10 10 11 11 10 11 12 11 10 9 6 6 4 3
3 3 4 5 6 5 5 5 6 6 7 8 8 8 9 9 10 11 11 12 12 12 10 10 10 11 11 12 12 11 9 9 9 9 7 5 6 7 6 7 7 11 9 9 8 10 11 10 9 7 5 4 3 3
3 3 4 4 5 5 5 5 5 6 6 7 7 8 8 8 9 10 10 11 11 11 10 9 9 9 10 10 11 11 11 10 10 8 4 4 5 8 5 10 10 11 10 10 9 9 9 9 6 4 3 3 3 3
3 3 3 4 5 5 5 5 5 5 5 6 6 7 7 7 8 8 9 10 10 11 9 8 9 9 9 9 10 10 10 10 9 5 3 5 6 6 4 5 7 10 11 8 6 8 6 6 4 3 3 3 3 2
2 3 3 3 4 5 5 5 5 4 5 5 6 6 7 7 7 7 8 8 9 9 10 7 7 8 8 8 8 8 7 8 8 6 5 7 7 8 4 5 7 9 9 8 7 6 5 4 4 3 3 2 2 2
2 2 2 3 3 4 5 5 5 5 5 5 5 5 6 6 6 7 7 8 8 9 9 7 5 5 6 6 6 6 6 5 6 6 5 6 7 6 4 5 7 7 5 5 5 4 4 3 3 2 2 2 2 2
1 2 1 2 2 3 4 5 5 5 5 5 5 5 6 6 6 6 7 8 8 7 8 4 3 4 5 4 4 5 4 4 5 5 4 4 4 4 5 6 4 4 3 4 4 3 3 2 2 3 3 2 2 2
1 1 1 1 1 2 3 4 5 5 5 5 5 5 6 5 5 5 6 6 7 7 6 3 4 4 4 2 2 3 3 4 3 2 3 3 3 5 5 3 3 4 3 2 2 3 2 3 2 2 2 1 1 0
1 1 1 2 2 1 2 3 4 5 6 5 5 5 5 5 5 6 5 5 5 5 4 3 4 5 4 2 2 2 2 3 4 3 2 1 3 1 2 2 2 2 2 2 2 2 2 2 1 1 0 -1 -1 -1
1 1 1 2 2 1 1 2 4 4 4 3 3 4 3 3 5 5 3 3 2 2 2 2 2 2 2 4 3 2 2 1 3 4 3 3 4 3 1 1 1 1 1 1 1 1 0 -0 -0 -1 -1 -2 -1 -2
0 1 1 1 2 1 1 1 1 2 1 2 2 1 2 2 1 1 1 -0 1 3 0 1 1 2 2 2 2 -0 2 1 3 1 1 3 5 2 1 1 1 1 1 1 1 0 -0 -1 -1 -1 -1 -2 -2 -2
0 0 0 1 0 1 1 0 1 1 0 0 1 0 -0 -1 2 3 3 2 2 0 0 0 0 1 1 1 -0 1 2 3 0 1 3 5 3 1 1 1 0 0 0 0 0 -1 -1 -1 -1 -2 -2 -2 -2 -2
-1 0 0 0 1 1 1 0 0 0 0 0 -0 1 1 1 1 1 2 2 -0 -0 -0 1 -1 0 -1 -1 -0 2 0 1 1 2 3 3 2 2 1 -0 0 0 0 -0 -0 -1 -1 -1 -2 -2 -2 -2 -2 -2
-1 -0 -0 -0 0 1 1 1 0 1 -0 -0 0 1 1 -2 -1 -1 -1 -0 -0 -0 0 0 -1 0 -1 -1 -0 -0 -0 1 2 3 3 2 1 0 0 0 0 0 -0 -0 -1 -1 -2 -2 -2 -2 -2 -2 -2 -3
-1 -1 -1 -0 -0 -0 0 -0 0 1 -0 -0 -1 -1 -2 -1 -1 -1 -1 -1 -0 -0 0 0 -0 0 -0 0 -0 1 2 2 3 1 1 0 0 0 0 -0 -0 -0 -1 -1 -1 -2 -2 -2 -2 -2 -2 -2 -2 -3
-1 -1 -1 -1 -0 0 0 0 1 1 -1 -1 -3 -2 -2 -1 -0 -1 -1 -0 -0 -0 -0 -0 1 1 -2 -0 -0 0 1 1 0 -0 0 1 0 -0 -0 -0 -0 -0 -1 -1 -2 -2 -2 -2 -2 -2 -2 -2 -2 -3
-1 -1 -1 -1 -1 -1 -1 -0 -0 -0 -2 -3 -2 -2 -2 -2 -1 -1 -1 -1 -1 -0 -0 1 -2 -1 0 1 1 1 -1 -1 -0 0 0 -0 -0 -1 -1 -1 -1 -1 -1 -2 -2 -2 -2 -2 -2 -3 -3 -3 -3 -4
-1 -1 -1 -1 -1 -1 -1 -1 -1 -2 -3 -3 -3 -3 -2 -2 -2 -1 -1 -1 -1 -1 -0 -1 -1 0 0 -1 -0 -1 0 0 -0 -0 -0 -1 -1 -1 -1 -1 -1 -2 -2 -2 -2 -2 -2 -2 -2 -3 -3 -5 -5 -6
-2 -1 -1 -1 -1 -1 -1 -2 -1 -2 -2 -3 -3 -3 -3 -3 -2 -2 -2 -2 -2 -1 -1 -1 -0 -1 -1 1 1 1 0 -0 -1 -2 -2 -2 -1 -1 -2 -2 -2 -2 -2 -2 -2 -2 -2 -2 -3 -4 -5 -6 -6 -6
-2 -2 -1 -1 -1 -1 -2 -3 -3 -3 -4 -3 -4 -4 -4 -4 -4 -4 -3 -3 -2 -2 -1 -1 -0 0 0 0 -0 -1 -1 -1 -2 -2 -2 -2 -2 -3 -2 -2 -2 -2 -2 -2 -2 -2 -2 -2 -3 -4 -4 -5 -6 -6
-3 -2 -2 -2 -3 -3 -3 -3 -4 -3 -4 -4 -4 -4 -4 -4 -5 -5 -5 -4 -3 -2 -2 -1 -1 -1 -1 -1 -1 -1 -1 -1 -2 -2 -2 -2 -2 -2 -2 -2 -2 -2 -2 -2 -2 -2 -2 -3 -3 -4 -5 -6 -7 -7
-2 -2 -2 -3 -3 -3 -5 -4 -4 -4 -3 -4 -4 -3 -4 -4 -6 -6 -5 -4 -4 -2 -1 -1 -0 -1 -1 -1 -1 -1 -1 -1 -1 -2 -2 -2 -2 -2 -2 -2 -2 -2 -2 -2 -2 -3 -3 -4 -4 -5 -7 -7 -7 -8
-2 -2 -3 -3 -4 -6 -5 -5 -5 -5 -5 -5 -3 -3 -4 -5 -7 -6 -5 -5 -2 -0 -1 -1 -1 -1 -1 -1 -1 -1 -1 -1 -2 -2 -2 -2 -2 -2 -2 -2 -2 -2 -3 -3 -3 -3 -4 -5 -5 -6 -7 -7 -8 -8
-1 -5 -4 -6 -6 -6 -5 -5 -5 -4 -4 -5 -5 -5 -6 -8 -5 -5 -5 -3 -2 -1 -1 -1 -1 -1 -2 -2 -2 -1 -1 -2 -2 -2 -2 -2 -2 -2 -2 -3 -3 -3 -4 -4 -4 -5 -5 -6 -7 -7 -8 -8 -8 -8
-5 -6 -5 -6 -6 -5 -5 -6 -6 -5 -5 -6 -6 -8 -9 -5 -4 -2 -2 -3 -2 -2 -2 -2 -2 -3 -3 -3 -3 -2 -2 -2 -3 -3 -3 -3 -3 -4 -4 -4 -5 -5 -5 -6 -6 -6 -7 -7 -8 -8 -9 -8 -8 -8
-6 -5 -6 -6 -6 -7 -8 -9 -9 -7 -7 -6 -5 -7 -5 -4 -3 -2 -3 -3 -3 -3 -3 -3 -3 -4 -4 -3 -3 -3 -3 -3 -4 -4 -4 -4 -4 -5 -6 -6 -6 -6 -6 -7 -7 -7 -8 -8 -9 -9 -9 -9 -9 -8
-6 -6 -6 -7 -7 -6 -6 -6 -6 -6 -4 -6 -6 -5 -4 -3 -2 -5 -4 -4 -3 -3 -3 -4 -4 -4 -5 -5 -6 -6 -6 -6 -5 -5 -5 -5 -6 -6 -6 -6 -7 -7 -7 -8 -8 -8 -9 -9 -9 -9 -9 -9 -9 -9
-5 -6 -6 -7 -8 -8 -6 -4 -4 -4 -4 -5 -4 -3 -4 -5 -5 -5 -5 -5 -5 -5 -6 -6 -6 -6 -7 -7 -8 -9 -9 -8 -8 -8 -9 -8 -7 -7 -7 -8 -8 -8 -8 -8 -9 -9 -9 -9 -9 -9 -9 -9 -10 -10
-6 -6 -6 -8 -7 -5 -4 -4 -4 -3 -3 -4 -4 -4 -4 -5 -7 -8 -9 -9 -8 -9 -9 -10 -10 -10 -11 -11 -11 -11 -11 -11 -11 -11 -11 -10 -10 -10 -10 -9 -9 -9 -9 -9 -9 -9 -9 -9 -9 -9 -10 -10 -10 -10
-7 -7 -7 -7 -6 -5 -4 -4 -4 -4 -4 -5 -4 -5 -5 -8 -10 -12 -12 -12 -12 -12 -12 -12 -12 -12 -12 -13 -13 -13 -13 -13 -13 -12 -12 -12 -12 -12 -11 -11 -11 -10 -10 -10 -10 -10 -10 -10 -10 -11 -11 -11 -11 -12
-8 -7 -7 -6 -6 -5 -5 -5 -5 -5 -5 -5 -6 -7 -8 -11 -14 -16 -15 -14 -13 -13 -13 -14 -14 -14 -14 -15 -14 -14 -14 -14 -14 -13 -13 -13 -13 -12 -12 -12 -12 -11 -12 -12 -11 -11 -11 -11 -12 -12 -12 -12 -12 -13
-9 -9 -9 -10 -9 -7 -7 -6 -7 -8 -8 -9 -11 -11 -12 -13 -16 -16 -16 -16 -15 -15 -15 -15 -14 -15 -15 -15 -15 -15 -15 -15 -15 -14 -14 -14 -14 -13 -13 -13 -13 -13 -13 -13 -13 -12 -12 -12 -12 -13 -13 -13 -14 -14

GFSWCAN_850_temp_015.txt.gz
Temp
6 5 5 5 5 6 7 8 8 9 9 10 10 11 12 12 12 13 13 14 14 12 11 12 12 13 13 15 13 13 12 11 11 7 8 10 8 12 12 14 11 9 8 7 8 8 8 13 12 9 11 10 9 5
5 5 5 5 5 5 6 7 7 8 8 9 10 10 11 11 12 12 12 13 14 13 11 12 12 13 13 14 14 11 14 12 13 12 9 9 8 6 9 11 15 12 13 12 12 12 14 12 12 10 9 8 6 4
3 5 5 5 5 5 5 6 7 7 8 8 9 9 10 11 11 12 12 12 13 12 10 11 11 12 12 13 12 12 11 13 12 12 9 6 6 9 6 10 12 14 14 11 11 13 13 12 10 8 6 5 4 3
3 4 4 5 5 5 5 5 6 6 7 7 8 8 9 10 10 11 11 12 12 11 10 10 10 10 11 12 12 12 12 11 10 9 6 4 8 11 8 12 12 13 13 12 11 12 11 11 7 6 5 3 3 4
3 3 4 4 4 5 5 5 5 5 6 7 7 7 8 8 9 10 10 11 11 11 9 9 8 10 10 11 10 11 10 10 8 6 4 6 9 10 8 7 10 12 12 11 10 11 8 8 6 5 4 3 5 4
2 3 3 4 4 5 5 5 5 5 5 6 6 7 7 7 8 8 9 9 10 11 10 7 7 7 9 9 8 9 9 9 10 8 6 9 11 10 6 7 10 11 11 11 10 8 6 4 4 4 5 5 4 4
2 2 3 3 4 4 5 5 5 5 5 5 5 6 6 7 7 8 9 8 9 9 10 7 8 5 6 6 6 7 6 7 7 7 7 7 9 8 6 7 10 10 9 7 6 5 4 4 4 4 4 4 4 4
2 2 2 2 3 3 4 5 5 5 5 5 5 5 6 6 6 6 8 8 8 8 9 6 6 5 5 5 5 5 5 5 6 7 5 6 8 6 5 8 9 8 6 4 4 4 4 4 4 4 4 4 4 3
2 2 2 2 2 2 3 4 5 5 5 5 5 5 5 5 5 6 7 7 7 7 7 4 4 5 4 3 3 3 4 5 4 4 4 5 5 6 8 9 7 6 5 4 4 5 4 4 4 4 4 3 2 2
1 1 2 2 2 2 2 3 4 5 5 5 5 5 5 5 6 6 6 6 6 6 5 3 5 5 6 2 2 3 3 5 4 4 2 2 3 5 5 5 5 4 4 4 4 4 3 3 3 3 2 1 1 0
1 1 2 2 2 2 2 3 3 4 4 4 4 4 3 4 5 5 4 5 4 3 3 4 4 4 4 4 3 3 3 3 4 4 4 4 5 6 4 3 3 3 3 4 3 3 2 2 2 1 1 -0 -1 -2
-0 1 1 1 1 1 1 2 3 3 2 3 3 2 3 2 2 3 2 0 1 3 1 1 1 3 2 3 2 0 2 2 5 4 3 4 7 5 3 3 3 3 3 2 2 2 1 1 0 -0 -1 -2 -2 -2
0 0 1 1 0 1 0 1 2 2 1 1 1 0 0 -0 2 3 3 3 2 0 0 0 0 1 1 1 0 2 3 4 3 2 4 7 6 4 4 3 3 2 1 1 1 1 0 -0 -1 -1 -1 -1 -2 -2
0 0 0 1 1 1 0 0 1 1 1 0 -0 1 1 2 2 2 3 2 0 1 1 1 -0 0 -0 1 0 3 1 3 2 3 4 7 5 4 3 3 2 2 1 1 1 1 0 -0 -1 -1 -1 -2 -2 -2
0 1 0 1 1 1 1 1 0 1 0 -0 -0 1 1 -1 -1 -1 -1 -0 -0 0 1 1 0 1 1 1 1 1 1 2 4 5 5 5 4 3 2 1 1 1 1 1 -0 -1 -1 -1 -1 -2 -2 -2 -2 -2
-1 -1 -0 0 0 0 0 0 0 1 0 -0 -1 -0 -1 -0 -1 -1 -0 -1 -0 0 1 0 1 2 1 1 1 2 3 4 5 4 3 2 2 1 1 1 1 0 0 -0 -0 -1 -1 -1 -2 -2 -2 -2 -2 -2
-1 -1 -0 -0 -0 -0 0 0 -1 0 -0 -1 -1 -2 -1 -1 -0 -1 -1 -0 -0 0 1 1 1 2 -1 1 2 3 3 3 2 2 2 2 0 0 1 0 0 0 -0 -1 -1 -1 -2 -2 -2 -2 -2 -3 -4 -3
-2 -1 -0 -0 -1 -1 -0 -1 -0 -0 -1 -1 -0 -2 -2 -2 -1 -1 -1 -0 -0 -1 -0 1 0 0 1 2 3 3 2 1 1 1 1 0 0 -0 -0 -1 -1 -1 -2 -2 -1 -2 -2 -2 -2 -2 -2 -3 -4 -4
-2 -1 -1 -1 -1 -0 -1 -1 -1 -0 -2 -2 -3 -3 -3 -2 -2 -1 -1 -1 -1 -1 -0 -0 1 2 2 1 1 1 0 1 1 1 0 -0 -1 -1 -1 -1 -1 -1 -1 -2 -2 -2 -2 -2 -2 -3 -3 -3 -4 -5
-2 -1 -1 -1 -1 -2 -2 -2 -0 -0 0 -2 -3 -2 -3 -3 -3 -2 -2 -1 -2 -1 -1 0 1 2 1 1 1 1 1 0 0 0 0 -0 -0 -1 -2 -2 -2 -2 -2 -2 -2 -3 -3 -3 -3 -3 -3 -4 -4 -4
-2 -2 -1 -2 -1 -1 -2 -2 -2 -2 -2 -1 -3 -1 -4 -4 -4 -3 -3 -3 -2 -1 1 1 0 0 0 0 0 -0 -0 -1 -1 -1 -1 -1 -1 -1 -2 -2 -2 -2 -2 -2 -2 -2 -2 -2 -2 -3 -3 -3 -4 -5
-2 -2 -2 -1 -2 -3 -3 -3 -2 -3 -1 -2 -2 -1 -3 -3 -4 -4 -4 -3 -2 -0 0 0 0 0 -0 -1 -1 -1 -1 -1 -1 -2 -2 -2 -2 -2 -2 -2 -2 -2 -2 -2 -2 -2 -2 -3 -3 -4 -4 -4 -5 -6
-3 -2 -3 -3 -4 -4 -4 -4 -3 -3 -1 -2 -3 -2 -2 -3 -4 -6 -4 -2 -1 -1 -1 -1 -1 -2 -1 -1 -1 -1 -1 -1 -1 -1 -2 -2 -2 -2 -2 -2 -3 -3 -2 -2 -3 -3 -3 -4 -4 -4 -5 -5 -6 -6
-2 -3 -4 -4 -4 -4 -5 -4 -3 -3 -3 -2 -1 -2 -2 -2 -6 -4 -2 -1 -1 -1 -2 -2 -2 -1 -1 -1 -1 -1 -1 -2 -2 -2 -2 -3 -3 -2 -2 -3 -3 -3 -4 -4 -4 -4 -4 -5 -5 -6 -6 -6 -7 -7
-3 -5 -4 -4 -5 -4 -3 -3 -3 -2 -2 -3 -3 -2 -3 -5 -2 -2 -2 -0 -2 -3 -3 -3 -2 -2 -1 -2 -2 -2 -2 -3 -3 -2 -2 -2 -3 -3 -3 -3 -4 -4 -4 -5 -5 -6 -6 -6 -6 -7 -7 -7 -7 -7
-3 -5 -3 -4 -4 -2 -2 -3 -3 -2 -2 -3 -3 -4 -5 -3 -2 -1 0 -3 -4 -5 -4 -4 -4 -4 -3 -3 -4 -4 -5 -5 -5 -5 -4 -4 -4 -5 -5 -5 -6 -5 -5 -6 -6 -6 -7 -7 -7 -8 -8 -8 -8 -8
-3 -4 -5 -6 -4 -4 -4 -5 -4 -3 -3 -3 -2 -4 -3 -2 -1 -0 -4 -6 -6 -6 -6 -6 -5 -7 -7 -7 -7 -7 -6 -6 -7 -7 -7 -6 -6 -6 -7 -7 -6 -6 -7 -7 -7 -7 -8 -8 -8 -8 -8 -8 -8 -8
-4 -4 -4 -5 -4 -4 -3 -3 -3 -3 -2 -2 -2 -3 -2 -1 -1 -6 -9 -7 -6 -6 -7 -7 -7 -6 -7 -8 -8 -9 -9 -9 -8 -8 -9 -8 -8 -7 -8 -8 -8 -8 -8 -8 -8 -8 -8 -9 -9 -9 -9 -9 -10 -10
-4 -5 -5 -6 -5 -5 -4 -3 -2 -2 -2 -3 -2 -1 -2 -7 -9 -10 -9 -8 -7 -8 -8 -8 -9 -8 -10 -11 -12 -12 -12 -11 -11 -12 -12 -11 -11 -10 -10 -10 -10 -10 -10 -9 -9 -10 -9 -9 -9 -9 -10 -10 -10 -11
-5 -5 -4 -5 -5 -3 -3 -4 -4 -4 -4 -4 -4 -4 -6 -9 -10 -10 -10 -10 -10 -10 -11 -11 -12 -12 -13 -14 -14 -13 -13 -13 -13 -13 -14 -14 -14 -13 -12 -12 -11 -11 -11 -11 -10 -10 -11 -11 -11 -11 -11 -11 -11 -11
-7 -6 -5 -4 -4 -4 -5 -4 -4 -4 -4 -5 -5 -5 -7 -11 -13 -12 -12 -13 -13 -13 -12 -13 -14 -15 -15 -15 -15 -14 -14 -14 -13 -14 -14 -14 -13 -13 -13 -13 -13 -12 -12 -12 -12 -12 -12 -12 -12 -13 -12 -12 -12 -12
-6 -5 -5 -4 -4 -6 -5 -6 -6 -6 -5 -6 -5 -8 -10 -10 -11 -15 -14 -14 -15 -14 -14 -14 -15 -15 -14 -16 -16 -16 -16 -16 -15 -15 -14 -14 -14 -14 -14 -14 -13 -13 -13 -13 -13 -13 -13 -13 -13 -13 -13 -13 -13 -13
-8 -8 -7 -7 -6 -5 -7 -6 -5 -5 -6 -6 -8 -10 -11 -11 -13 -16 -15 -14 -14 -14 -14 -14 -14 -15 -15 -16 -17 -17 -16 -16 -16 -16 -16 -16 -16 -16 -15 -15 -15 -15 -15 -14 -14 -14 -14 -14 -14 -14 -14 -14 -14 -15

GFSWCAN_850_temp_021.txt.gz
Temp
6 6 6 6 7 7 8 8 9 9 10 11 11 12 12 13 13 14 14 14 15 14 13 14 15 16 15 15 7 12 9 10 5 5 4 4 4 5 8 9 5 4 4 3 5 6 4 12 12 8 8 9 8 7
5 5 5 6 6 7 7 8 8 9 9 10 11 12 12 12 12 13 13 14 14 14 13 13 13 14 15 14 14 13 13 11 10 5 3 4 4 5 5 6 10 8 6 5 6 5 10 13 13 11 11 9 7 7
5 6 5 5 5 6 7 7 8 8 9 10 10 11 12 12 12 12 13 13 14 13 12 12 13 13 13 14 14 13 13 13 12 11 7 6 3 4 4 5 11 12 11 6 8 10 12 11 10 9 8 8 7 6
6 5 5 5 5 6 6 7 7 8 8 9 9 10 11 11 11 12 12 12 13 12 9 11 11 12 13 13 13 14 14 13 12 11 4 3 2 8 3 6 5 9 11 10 7 10 12 9 9 7 6 6 6 5
5 5 5 5 5 5 5 6 6 7 8 8 9 9 10 10 11 11 11 11 12 12 8 9 10 10 11 12 12 12 13 13 11 8 3 3 6 6 6 4 4 11 9 6 5 10 10 7 6 6 6 5 5 5
3 4 5 5 5 5 5 5 6 6 7 7 8 8 9 10 10 10 11 11 11 11 11 4 9 8 9 10 10 11 10 11 11 10 6 8 11 10 3 4 9 11 11 11 10 9 9 7 6 5 5 5 5 5
2 3 3 4 5 5 5 5 5 5 6 6 7 8 8 9 9 10 10 9 10 10 11 5 7 7 8 9 9 9 10 10 9 9 8 8 9 9 2 4 8 11 11 9 9 8 6 6 5 5 5 5 5 4
2 1 3 3 4 4 5 5 4 4 4 5 6 7 7 8 8 8 9 9 9 10 10 4 5 6 7 7 7 7 7 8 8 7 7 6 8 6 4 6 10 10 10 9 7 6 6 5 5 5 5 5 4 4
2 2 3 3 4 4 4 5 5 5 5 5 5 5 6 6 7 7 8 8 8 9 7 5 2 3 6 4 4 5 6 3 5 4 5 6 2 4 5 7 9 9 8 6 6 5 5 5 5 5 4 4 3 2
2 2 3 3 3 4 4 5 5 5 5 5 5 5 6 6 7 7 7 7 8 7 6 4 5 4 5 4 3 4 4 2 3 3 4 2 3 5 7 8 8 8 7 7 6 5 5 5 4 3 3 3 2 1
1 2 2 3 3 4 4 4 4 5 5 5 5 5 5 5 6 7 6 5 4 3 5 5 5 4 4 2 2 3 2 1 4 2 3 3 3 4 7 6 7 6 6 6 5 5 4 3 3 3 2 2 1 1
1 1 2 2 2 3 2 2 3 4 4 4 4 4 4 4 4 3 2 2 2 3 2 3 4 4 4 4 3 2 3 2 4 3 3 3 2 5 5 5 5 5 5 4 3 3 3 2 2 2 1 1 0 -1
1 1 1 1 1 1 2 2 3 3 3 3 3 3 2 0 2 3 3 2 2 1 1 2 1 2 3 3 1 1 2 3 2 2 2 1 5 4 4 4 4 3 3 3 2 2 2 2 1 1 0 -0 -1 -1
1 1 1 1 1 1 2 2 2 2 3 2 1 1 1 1 1 0 1 0 -0 0 0 1 0 1 1 1 0 2 1 1 2 2 -0 2 3 3 4 4 3 3 3 2 2 2 2 1 1 0 -0 -1 -1 -1
0 1 1 1 1 1 2 2 2 2 1 0 1 1 0 -1 -1 -1 -1 -0 -0 -0 0 0 -0 0 -0 0 0 0 1 2 2 2 0 1 3 4 4 3 2 2 2 2 1 1 0 0 -0 -0 -1 -1 -1 -2
-0 -0 0 0 0 1 1 2 2 1 0 0 -1 -1 -1 -0 -1 -1 -1 -1 -0 -0 -0 0 -0 1 1 0 1 2 2 2 1 0 1 2 2 3 3 2 1 1 1 1 1 0 -0 -0 -1 -1 -1 -1 -2 -2
-1 -1 -1 -0 -1 0 1 1 1 1 0 0 -1 -1 -1 -1 -0 -0 -1 -1 -0 0 0 0 1 -0 -1 0 1 0 1 -0 2 2 2 2 2 1 1 1 1 1 0 -0 -0 -0 -1 -1 -1 -2 -2 -2 -2 -2
-1 -1 -1 -1 -1 -0 0 -0 0 -0 0 -1 -0 -1 -1 -1 -2 -2 -1 -1 -0 -0 0 -0 0 -0 0 1 0 -0 2 1 2 2 2 1 1 1 1 0 0 0 -0 -0 -1 -1 -1 -2 -2 -2 -2 -2 -2 -2
-1 -1 -1 -1 -1 -0 0 0 0 -0 -1 -1 -2 -2 -3 -2 -2 -2 -1 -1 -0 1 0 0 -1 -1 -1 1 1 1 1 1 1 1 1 1 1 0 0 -0 -0 -0 -1 -1 -1 -1 -2 -2 -2 -2 -2 -2 -2 -2
-2 -2 -1 -1 -1 -1 -1 -0 -0 0 0 -1 -2 -2 -2 -3 -3 -3 -2 -2 -0 0 -0 -2 -1 1 1 1 1 1 1 1 1 1 1 0 -0 -0 -1 -1 -1 -1 -2 -2 -2 -2 -2 -2 -2 -2 -2 -3 -3 -3
-3 -2 -2 -2 -2 -1 -1 -1 -0 -0 -1 -1 -2 -2 -4 -4 -3 -3 -2 -1 -0 -1 0 1 1 1 1 1 0 0 0 -0 -0 -1 -1 -1 -1 -1 -1 -1 -2 -2 -2 -2 -2 -2 -2 -2 -2 -3 -3 -3 -4 -4
-3 -3 -2 -2 -2 -2 -2 -1 -1 -1 -1 -1 -1 -2 -3 -3 -3 -3 -3 -2 -1 -0 0 1 1 1 0 -0 -1 -1 -1 -1 -1 -2 -2 -2 -2 -2 -2 -2 -2 -2 -2 -2 -2 -2 -3 -3 -3 -4 -4 -4 -4 -5
-3 -2 -2 -2 -3 -3 -3 -2 -1 -1 -2 -1 -1 -2 -2 -3 -3 -4 -3 -2 -2 -1 -0 -0 -0 -0 -0 -1 -1 -1 -2 -2 -2 -2 -2 -2 -2 -2 -3 -3 -3 -3 -4 -4 -4 -4 -5 -5 -5 -5 -5 -5 -6 -6
-3 -2 -3 -3 -3 -3 -3 -2 -1 -1 -1 -1 -2 -2 -3 -2 -4 -3 -6 -0 -2 -1 -1 -2 -1 -1 -1 -2 -2 -3 -3 -3 -3 -3 -3 -3 -3 -3 -4 -5 -5 -5 -6 -6 -6 -6 -7 -6 -5 -6 -6 -6 -6 -7
-3 -4 -4 -4 -4 -3 -4 -3 -2 -3 -6 -5 -5 -5 -3 -4 -7 -7 -6 -3 -5 -4 -4 -3 -3 -2 -4 -4 -5 -4 -4 -3 -3 -4 -4 -5 -6 -6 -6 -7 -8 -8 -8 -8 -8 -9 -8 -7 -7 -7 -7 -7 -7 -7
-4 -4 -4 -3 -3 -4 -3 -4 -3 -4 -6 -4 -5 -4 -3 -5 -6 -7 -4 -6 -6 -6 -7 -5 -5 -5 -5 -5 -4 -4 -4 -4 -5 -6 -7 -8 -9 -10 -10 -10 -10 -9 -9 -10 -10 -10 -10 -9 -9 -9 -8 -8 -8 -8
-4 -4 -4 -4 -4 -3 -3 -3 -3 -3 -4 -5 -6 -6 -8 -7 -8 -5 -7 -7 -7 -7 -8 -8 -7 -6 -7 -7 -7 -8 -8 -8 -8 -8 -9 -11 -11 -11 -11 -12 -13 -13 -12 -12 -12 -12 -11 -11 -11 -11 -10 -9 -9 -9
-4 -4 -4 -4 -4 -3 -3 -3 -5 -5 -5 -1 -3 -8 -8 -8 -6 -8 -8 -9 -9 -9 -9 -10 -9 -9 -9 -10 -11 -11 -10 -10 -10 -10 -10 -11 -11 -11 -12 -12 -12 -13 -13 -13 -13 -12 -12 -12 -12 -12 -11 -11 -11 -11
-4 -4 -4 -5 -3 -3 -2 -2 -2 -2 -2 -2 -5 -7 -6 -9 -9 -10 -10 -11 -11 -11 -11 -10 -10 -10 -11 -12 -12 -12 -11 -10 -10 -11 -11 -12 -11 -11 -12 -13 -14 -14 -14 -13 -13 -13 -14 -13 -13 -13 -12 -12 -12 -12
-5 -4 -4 -4 -6 -5 -4 -4 -4 -4 -3 -3 -3 -5 -8 -11 -11 -12 -12 -12 -11 -11 -12 -13 -14 -12 -12 -12 -12 -13 -14 -14 -14 -14 -15 -15 -15 -15 -15 -15 -15 -15 -15 -15 -15 -14 -14 -14 -14 -14 -13 -13 -13 -13
-6 -5 -4 -3 -3 -5 -5 -5 -5 -4 -4 -5 -5 -5 -9 -11 -12 -12 -12 -13 -14 -13 -13 -13 -13 -13 -13 -13 -13 -14 -14 -15 -16 -16 -17 -17 -17 -17 -16 -16 -16 -16 -16 -16 -16 -16 -16 -17 -16 -16 -15 -15 -15 -15
-5 -5 -4 -4 -4 -5 -6 -6 -5 -6 -5 -6 -6 -7 -9 -10 -13 -13 -14 -14 -14 -13 -12 -12 -12 -13 -13 -14 -15 -16 -17 -16 -16 -17 -17 -18 -17 -17 -17 -17 -17 -17 -17 -17 -17 -18 -18 -18 -18 -17 -17 -17 -17 -17
-6 -6 -6 -5 -5 -5 -6 -6 -5 -4 -5 -5 -7 -9 -9 -10 -13 -14 -15 -14 -13 -13 -13 -13 -14 -14 -14 -14 -15 -15 -16 -16 -16 -16 -17 -18 -18 -18 -17 -17 -17 -18 -18 -19 -19 -19 -19 -19 -19 -18 -18 -18 -18 -18

GFSWCAN_850_temp_024.txt.gz
Temp
6 6 7 8 8 8 9 9 9 10 10 11 12 12 13 13 14 15 15 15 15 14 12 13 15 15 14 13 6 11 9 9 4 4 2 4 1 5 6 7 5 4 4 2 1 0 5 9 10 8 8 9 9 8
6 6 7 8 8 8 8 9 9 9 10 10 11 12 12 13 13 14 14 14 15 15 12 12 13 14 15 15 14 12 12 10 10 4 3 4 2 4 4 6 8 8 6 5 6 6 9 11 12 13 12 11 8 8
6 6 6 7 7 8 8 8 9 9 10 10 11 11 12 12 13 13 14 14 14 13 11 12 12 12 13 14 15 13 12 12 11 11 5 2 3 2 4 4 8 9 9 5 7 9 9 11 11 11 10 10 8 7
5 5 6 6 7 7 7 8 8 9 9 10 10 11 11 12 12 12 13 13 13 13 10 10 11 12 12 13 13 14 14 13 12 11 4 2 2 6 2 5 4 8 9 8 5 9 9 9 9 10 8 8 7 6
5 5 5 5 6 6 7 7 8 8 9 9 10 10 11 11 11 12 12 12 13 13 8 10 10 10 11 12 12 13 13 13 11 8 3 3 5 4 2 2 2 9 8 6 5 11 10 9 8 7 7 6 6 5
5 5 5 5 5 6 6 7 7 7 8 8 9 10 10 10 10 11 11 11 12 12 12 4 8 9 10 10 11 11 11 11 11 11 7 8 9 8 3 5 7 11 11 11 10 10 10 9 7 6 6 5 5 5
5 5 5 5 6 5 5 6 6 7 7 8 8 9 9 10 10 11 10 9 10 11 12 5 6 7 8 9 9 9 10 10 10 9 7 8 9 8 2 4 8 11 11 11 10 9 6 6 6 5 5 4 4 4
2 4 4 5 5 5 5 4 5 6 6 7 7 8 8 9 9 9 9 9 10 11 10 2 2 7 7 8 8 8 8 8 8 8 6 6 6 4 4 5 9 10 10 8 8 8 8 6 5 5 5 4 4 4
1 2 3 3 4 5 5 4 4 4 5 6 6 7 7 8 8 8 8 8 9 9 7 4 2 4 6 5 5 6 6 2 5 3 4 5 2 4 5 7 8 9 8 8 6 6 6 5 4 4 4 4 4 3
2 2 3 3 4 4 5 5 5 4 4 5 5 7 6 7 7 7 7 8 8 8 7 4 4 2 5 3 3 3 3 1 3 3 4 2 3 5 6 7 7 8 9 7 6 4 4 3 3 3 3 3 4 3
2 2 3 3 4 5 5 5 5 5 5 5 5 5 5 6 7 7 5 4 4 3 5 4 5 3 4 2 2 3 1 1 4 1 1 1 2 3 6 6 6 7 6 6 5 4 3 3 3 3 3 3 2 1
2 2 2 3 2 2 4 4 4 5 5 5 5 5 5 5 6 3 2 2 2 3 2 3 3 4 4 4 2 2 2 1 3 2 3 3 2 3 4 4 4 5 4 4 2 1 1 2 1 2 2 2 1 1
1 1 1 1 1 2 3 3 3 4 4 4 4 4 3 1 2 4 4 2 2 1 2 2 2 3 3 4 2 1 2 3 2 2 3 2 4 2 3 3 3 3 2 1 1 0 1 2 2 2 1 0 -0 -0
1 1 1 1 2 2 2 2 3 3 4 3 1 1 1 1 0 -0 0 0 -0 0 0 1 0 1 1 1 0 2 1 1 3 2 -1 1 2 2 2 3 3 3 3 2 2 2 2 1 1 0 -0 -0 -1 -1
1 1 1 1 1 2 2 2 3 3 3 0 1 0 -1 -2 -2 -1 -1 -0 -0 -0 0 0 0 0 -0 0 -0 -0 1 2 1 1 0 0 1 1 2 2 3 2 2 2 1 1 1 0 -0 -0 -1 -1 -2 -2
0 0 1 0 1 1 2 2 3 3 1 -0 -1 -1 -1 -1 -1 -1 -1 -1 -0 -0 -0 0 -0 1 -0 -0 0 1 1 1 0 -0 0 0 -0 -0 -0 -0 1 1 1 1 1 0 -0 -1 -1 -1 -1 -2 -2 -2
-0 -1 -1 -0 0 1 2 2 2 1 -0 -0 -1 -1 -1 -1 -1 -1 -1 -1 -0 -0 -1 -1 -1 -1 -1 -0 0 0 0 -0 1 1 1 1 1 0 -1 -1 0 0 0 0 -0 -1 -1 -1 -2 -2 -2 -2 -2 -2
-1 -1 -1 -1 -1 1 2 1 1 0 -1 -1 -1 -1 -1 -1 -1 -1 -1 -1 0 -0 -0 -1 -0 -1 -0 -0 0 -0 0 0 0 0 0 1 1 1 0 0 0 -0 -1 -1 -1 -1 -2 -2 -2 -2 -2 -2 -2 -2
-2 -1 -1 -1 -1 0 1 0 0 -1 -1 -1 -2 -2 -2 -2 -2 -2 -2 -1 -0 0 0 0 -3 -2 -2 1 1 1 1 1 1 1 1 0 0 -0 -0 -0 -1 -1 -1 -1 -2 -2 -2 -2 -2 -2 -2 -2 -3 -3
-1 -1 -1 -1 -0 -0 -0 -0 -0 -0 -1 -2 -2 -2 -3 -3 -3 -3 -2 -1 -0 0 -0 -4 -3 0 1 1 1 1 1 0 0 0 -0 -0 -1 -1 -1 -2 -2 -2 -2 -2 -2 -2 -2 -2 -3 -3 -3 -3 -3 -3
-3 -2 -1 -1 -1 -0 -1 -0 -0 -1 -1 -1 -2 -2 -4 -4 -3 -3 -2 -1 -1 -1 -1 0 1 1 1 0 0 -0 -0 -0 -0 -1 -1 -2 -2 -2 -2 -2 -2 -2 -3 -3 -3 -3 -3 -3 -4 -4 -4 -4 -4 -5
-3 -3 -2 -1 -1 -1 -1 -1 -1 -1 -1 -1 -2 -2 -3 -3 -3 -3 -3 -2 -2 -1 -0 -0 0 0 -0 -1 -1 -1 -1 -2 -2 -2 -3 -3 -2 -2 -3 -3 -3 -3 -4 -4 -5 -5 -5 -6 -6 -6 -6 -5 -5 -5
-3 -2 -2 -2 -2 -3 -3 -2 -1 -1 -3 -2 -2 -3 -3 -3 -3 -4 -3 -3 -2 -2 -2 -1 -1 -1 -1 -2 -2 -2 -2 -2 -2 -3 -3 -3 -3 -3 -3 -4 -4 -5 -5 -6 -8 -8 -8 -8 -7 -7 -7 -7 -7 -7
-3 -3 -3 -3 -3 -4 -3 -3 -3 -2 -2 -2 -3 -3 -4 -3 -5 -4 -8 -3 -4 -4 -2 -2 -2 -2 -3 -3 -3 -4 -4 -4 -4 -4 -3 -3 -3 -4 -6 -7 -8 -8 -9 -10 -10 -9 -9 -9 -9 -8 -8 -8 -8 -8
-3 -4 -4 -4 -4 -4 -7 -5 -3 -4 -7 -6 -7 -8 -4 -4 -10 -11 -9 -5 -5 -5 -4 -3 -2 -3 -4 -6 -6 -5 -5 -4 -4 -4 -5 -5 -7 -7 -8 -9 -10 -10 -10 -10 -10 -10 -11 -11 -10 -10 -10 -10 -10 -9
-7 -4 -5 -3 -4 -6 -6 -6 -7 -6 -7 -6 -7 -4 -4 -8 -9 -8 -5 -6 -6 -6 -6 -6 -6 -6 -6 -6 -7 -6 -6 -6 -7 -7 -8 -9 -9 -10 -10 -11 -11 -11 -11 -12 -12 -12 -12 -12 -12 -12 -12 -11 -11 -11
-7 -6 -4 -4 -4 -4 -4 -4 -3 -4 -5 -5 -5 -6 -9 -9 -11 -6 -7 -7 -7 -7 -7 -9 -9 -8 -8 -8 -8 -8 -8 -8 -8 -9 -10 -10 -11 -12 -12 -12 -13 -13 -13 -13 -13 -14 -14 -14 -13 -13 -13 -12 -12 -12
-4 -4 -6 -4 -4 -4 -4 -4 -5 -5 -6 -4 -4 -8 -7 -9 -8 -9 -9 -9 -8 -8 -9 -10 -10 -9 -9 -9 -10 -10 -10 -10 -11 -11 -11 -12 -12 -12 -12 -13 -13 -14 -14 -14 -15 -14 -15 -15 -15 -14 -14 -13 -13 -13
-4 -5 -5 -5 -4 -3 -3 -5 -4 -4 -4 -3 -7 -11 -8 -10 -10 -10 -10 -10 -10 -10 -11 -11 -11 -11 -11 -11 -12 -11 -10 -10 -10 -10 -11 -11 -11 -12 -13 -13 -14 -14 -14 -14 -15 -15 -16 -16 -16 -15 -15 -14 -14 -14
-5 -5 -4 -5 -7 -6 -5 -5 -4 -5 -4 -4 -4 -7 -10 -12 -12 -12 -12 -11 -11 -11 -12 -12 -12 -12 -12 -12 -12 -12 -12 -12 -13 -13 -14 -14 -14 -14 -15 -14 -14 -15 -15 -16 -16 -16 -16 -16 -16 -16 -16 -16 -16 -16
-5 -4 -4 -4 -5 -5 -5 -6 -6 -5 -5 -6 -6 -6 -10 -12 -13 -13 -13 -13 -13 -14 -14 -13 -13 -13 -12 -12 -12 -13 -14 -14 -15 -15 -16 -16 -16 -16 -16 -16 -16 -16 -16 -17 -17 -18 -18 -18 -18 -18 -18 -18 -18 -18
-5 -5 -4 -7 -5 -6 -7 -7 -6 -6 -6 -6 -7 -7 -10 -12 -14 -14 -15 -15 -14 -14 -14 -13 -13 -13 -13 -14 -14 -15 -15 -15 -16 -16 -16 -16 -16 -17 -17 -16 -17 -17 -17 -18 -18 -18 -19 -19 -19 -19 -19 -19 -19 -19
-7 -6 -7 -6 -6 -6 -6 -6 -6 -6 -6 -7 -9 -10 -10 -11 -14 -14 -14 -14 -14 -14 -14 -14 -14 -14 -14 -14 -15 -15 -16 -16 -17 -17 -17 -17 -17 -17 -17 -17 -17 -18 -18 -18 -19 -19 -19 -20 -20 -20 -20 -20 -20 -20

GFSWCAN_850_temp_027.txt.gz
Temp
7 7 7 8 8 8 9 10 10 10 10 11 11 12 13 14 14 15 15 15 16 13 11 12 13 14 12 13 7 11 9 10 4 4 2 2 0 4 5 7 5 4 4 3 2 1 6 9 9 8 8 11 11 9
7 8 7 7 7 9 9 9 10 10 10 11 11 12 13 13 14 14 15 15 15 15 11 11 12 13 14 14 14 11 12 10 10 2 1 2 1 4 3 5 6 6 6 5 5 6 8 9 11 12 12 12 10 10
6 7 7 7 8 9 9 9 9 10 10 11 11 12 13 13 14 14 14 14 15 12 11 11 11 11 12 14 14 14 12 12 11 11 5 1 3 1 4 4 6 7 8 4 6 9 8 11 11 10 11 11 10 9
6 6 7 7 8 9 9 9 9 10 10 11 11 12 12 13 13 14 14 14 14 13 10 10 11 11 11 12 13 14 15 13 12 11 4 1 1 5 1 4 4 7 7 7 4 7 8 10 11 11 10 9 8 7
6 6 6 7 8 8 8 8 9 9 10 11 11 11 12 12 12 13 13 13 14 14 7 9 10 10 11 11 12 13 13 13 11 8 2 3 4 2 2 1 2 8 7 4 5 11 10 10 11 10 9 8 7 6
5 5 5 6 7 7 7 8 8 9 9 10 10 11 11 11 12 12 12 12 12 13 13 4 8 9 10 10 11 12 11 12 11 11 7 8 7 6 3 5 7 11 11 12 10 11 10 10 10 8 7 6 6 5
5 5 5 6 6 7 7 7 8 8 9 9 10 10 10 11 11 12 11 10 11 12 12 4 5 8 8 9 9 9 10 10 10 9 7 6 6 7 2 4 9 12 12 11 11 9 8 8 7 6 6 5 5 4
5 5 5 5 5 6 6 6 7 7 8 8 9 9 9 10 10 10 10 10 10 11 11 2 1 6 7 8 8 8 8 8 7 6 5 4 5 3 3 6 9 9 9 9 9 8 9 8 6 5 4 4 3 2
4 5 5 5 5 5 5 5 6 6 7 7 8 8 8 9 9 8 9 9 9 10 8 3 2 4 6 5 5 6 6 2 4 3 3 4 2 4 5 6 7 8 7 8 7 6 7 6 5 4 3 1 1 2
2 3 4 5 4 5 4 4 4 5 6 6 7 8 7 8 8 8 8 9 9 8 7 2 3 2 4 3 3 3 2 1 3 2 4 2 3 4 5 5 6 7 7 8 6 4 4 3 2 1 -1 -1 2 2
1 2 3 4 4 5 5 4 4 4 5 6 7 6 6 6 7 7 5 4 3 4 5 3 3 3 3 2 1 2 2 1 4 1 3 2 2 2 3 5 5 5 6 4 4 4 2 2 -0 -1 0 0 -1 1
1 2 3 3 4 4 4 4 4 5 5 6 6 5 6 6 6 2 1 2 2 3 2 3 3 4 3 4 2 2 1 1 2 2 2 3 1 1 2 1 1 2 3 2 2 0 -1 -2 -2 -2 -1 0 1 1
1 1 1 2 2 2 3 4 4 4 5 5 5 5 4 2 3 4 4 2 2 1 1 2 2 2 3 3 2 1 2 2 2 2 3 1 -0 1 0 -0 -0 0 0 -0 -0 -0 -1 -1 -1 0 0 0 0 -0
0 1 1 2 2 2 3 3 4 4 4 3 2 1 1 1 0 0 0 0 -0 0 1 1 1 1 1 1 0 2 1 0 3 2 -1 0 -0 -0 -1 0 1 1 1 1 0 -1 0 0 1 0 -0 -1 -1 -1
1 1 1 2 2 2 2 3 3 4 3 1 0 -0 -1 -2 -2 -1 -1 -0 -0 -0 0 1 0 1 -0 0 -0 -0 1 1 0 -1 -1 -1 -1 -1 -0 -1 -2 0 0 1 1 1 0 -0 -0 -0 -1 -1 -2 -2
1 1 1 1 2 2 3 3 4 4 1 -1 -0 -1 -1 -1 -1 -1 -1 -1 -0 -0 -0 0 -0 0 -0 -0 -1 -1 -0 -1 -2 -1 -1 -0 -0 -0 -1 -1 -1 -1 -1 0 0 -0 -1 -1 -1 -1 -1 -2 -2 -2
1 0 0 1 2 2 3 3 3 1 -1 -0 -1 -1 -1 -1 -1 -1 -1 -1 -0 -0 -0 -1 -1 -1 -1 -0 0 -0 -0 -1 -1 -0 0 0 0 0 0 -0 -0 -1 -1 -1 -1 -1 -1 -1 -2 -2 -2 -2 -2 -2
0 -1 -0 1 2 2 3 2 1 -1 -2 -1 -1 -1 -1 -1 -1 -1 -1 -1 -0 -0 -0 -2 -1 -3 -2 -2 -1 -1 -0 0 0 -0 -0 -0 -0 -0 -0 -1 -1 -1 -1 -2 -2 -2 -2 -2 -2 -2 -2 -3 -3 -3
-1 -1 -0 1 2 1 1 0 -0 -1 -2 -2 -2 -2 -2 -2 -2 -1 -1 -1 -0 -0 0 -0 -4 -3 -3 -0 0 0 0 -0 -0 -0 -0 -0 -1 -1 -1 -1 -2 -2 -2 -2 -2 -2 -3 -3 -3 -3 -3 -3 -3 -3
-1 -1 -0 -0 1 1 0 -0 -0 -1 -2 -2 -2 -2 -3 -3 -2 -2 -2 -1 -0 -0 -0 -4 -4 0 1 1 1 1 0 0 1 -0 -1 -1 -2 -2 -2 -2 -2 -2 -2 -2 -2 -2 -2 -3 -3 -4 -4 -5 -5 -5
-1 -1 -0 -0 -0 -0 -1 -1 -1 -1 -2 -2 -3 -2 -3 -3 -3 -2 -2 -1 -1 -1 -1 -0 0 0 -0 -0 -0 -0 -0 -0 -0 -1 -1 -2 -3 -3 -3 -3 -3 -3 -3 -3 -3 -4 -5 -6 -6 -7 -6 -7 -7 -7
-2 -2 -1 -0 -0 -1 -1 -2 -1 -1 -1 -2 -2 -2 -3 -3 -3 -3 -3 -3 -2 -2 -2 -0 0 -0 -1 -1 -1 -1 -1 -1 -2 -2 -3 -3 -3 -3 -3 -3 -3 -3 -4 -5 -6 -7 -8 -8 -9 -9 -9 -8 -8 -8
-2 -2 -1 -2 -1 -2 -3 -2 -2 -2 -3 -3 -3 -3 -3 -3 -3 -4 -3 -3 -3 -3 -2 -2 -1 -1 -1 -2 -2 -2 -3 -3 -3 -4 -4 -4 -4 -4 -5 -5 -6 -6 -7 -8 -9 -9 -9 -9 -9 -9 -10 -10 -10 -10
-3 -3 -3 -3 -3 -4 -3 -3 -3 -2 -2 -3 -4 -4 -4 -3 -4 -5 -8 -4 -5 -3 -3 -3 -3 -2 -3 -4 -4 -4 -5 -5 -5 -5 -5 -5 -5 -6 -7 -8 -9 -9 -10 -10 -10 -10 -10 -10 -11 -11 -11 -11 -11 -11
-4 -4 -4 -5 -4 -4 -10 -9 -5 -5 -8 -5 -4 -4 -5 -4 -8 -7 -10 -5 -6 -5 -4 -4 -4 -5 -4 -5 -6 -6 -6 -6 -6 -6 -6 -7 -8 -9 -9 -10 -11 -11 -11 -10 -10 -11 -11 -11 -12 -12 -12 -12 -13 -13
-7 -5 -5 -5 -5 -7 -9 -9 -9 -8 -8 -6 -5 -5 -5 -7 -6 -8 -6 -7 -7 -6 -6 -6 -6 -6 -7 -7 -7 -7 -7 -7 -8 -8 -8 -9 -10 -10 -11 -11 -11 -11 -12 -12 -13 -13 -13 -13 -13 -13 -13 -13 -13 -13
-9 -9 -5 -5 -4 -4 -4 -4 -4 -4 -5 -5 -7 -6 -6 -5 -6 -7 -8 -8 -8 -8 -7 -8 -8 -8 -8 -8 -9 -9 -9 -9 -9 -9 -10 -11 -12 -12 -13 -13 -13 -13 -13 -13 -14 -14 -14 -14 -14 -15 -15 -15 -14 -14
-4 -4 -5 -4 -4 -4 -5 -5 -5 -4 -5 -4 -5 -5 -5 -7 -8 -10 -10 -9 -9 -9 -8 -9 -10 -10 -10 -10 -11 -11 -11 -11 -11 -12 -12 -13 -13 -13 -13 -13 -14 -14 -14 -14 -14 -15 -15 -16 -16 -16 -17 -16 -16 -16
-5 -5 -5 -5 -4 -4 -5 -5 -5 -5 -5 -5 -7 -8 -9 -11 -11 -11 -11 -10 -10 -10 -10 -10 -11 -11 -12 -12 -12 -12 -11 -11 -11 -12 -12 -12 -12 -13 -13 -14 -14 -14 -14 -14 -15 -15 -16 -17 -18 -18 -18 -18 -17 -17
-5 -5 -5 -5 -6 -5 -6 -5 -5 -5 -5 -5 -6 -8 -11 -13 -12 -12 -12 -11 -11 -11 -12 -12 -12 -13 -13 -13 -12 -11 -12 -12 -13 -13 -13 -13 -14 -14 -14 -15 -15 -15 -15 -15 -15 -15 -16 -17 -17 -18 -18 -18 -18 -18
-5 -5 -4 -4 -6 -6 -5 -6 -7 -6 -6 -6 -6 -7 -11 -13 -14 -13 -13 -13 -14 -14 -14 -14 -13 -13 -12 -13 -13 -14 -14 -14 -14 -14 -14 -15 -16 -16 -16 -16 -16 -16 -16 -16 -16 -17 -17 -18 -18 -18 -19 -19 -19 -19
-5 -6 -6 -6 -6 -6 -7 -7 -7 -6 -6 -7 -8 -9 -11 -12 -13 -15 -15 -15 -15 -14 -14 -13 -14 -14 -13 -13 -13 -14 -14 -14 -15 -15 -16 -16 -16 -17 -17 -17 -17 -17 -17 -17 -18 -18 -18 -18 -19 -19 -19 -20 -20 -20
-7 -7 -7 -7 -6 -6 -7 -7 -7 -7 -7 -9 -10 -11 -11 -12 -14 -15 -15 -15 -15 -15 -14 -14 -14 -14 -14 -14 -14 -15 -15 -16 -16 -17 -17 -18 -18 -18 -18 -18 -18 -18 -18 -18 -19 -19 -19 -19 -19 -20 -20 -20 -20 -21

GFSWCAN_850_temp_030.txt.gz
Temp
5 6 6 7 7 7 8 9 9 10 10 11 11 12 12 12 13 14 14 14 15 12 10 12 13 13 11 12 6 10 9 10 4 4 3 2 1 4 6 7 4 5 4 4 1 -0 6 8 9 8 9 11 12 11
6 6 7 7 7 8 9 9 9 10 10 11 11 11 12 13 13 13 13 14 15 15 10 11 11 12 14 14 13 11 12 10 10 2 -1 0 2 3 3 6 5 6 5 4 5 5 8 9 9 11 11 11 12 12
6 7 7 7 7 8 8 9 9 10 10 11 11 12 12 13 13 13 14 15 15 11 9 10 10 11 12 14 14 13 11 12 11 11 4 1 3 0 3 3 6 6 6 3 6 9 7 10 11 11 10 11 11 11
7 7 7 7 7 8 8 9 10 10 10 11 11 12 13 13 14 15 15 14 15 13 9 9 10 11 11 12 13 14 15 13 12 10 5 -0 2 4 0 3 3 6 6 6 4 6 9 11 12 12 11 10 10 10
6 6 7 7 8 8 8 9 9 10 10 11 11 11 12 13 13 13 14 14 14 15 7 9 9 10 11 12 13 13 14 13 11 8 2 2 4 2 1 -0 2 7 6 4 5 11 10 11 12 12 11 11 9 8
6 5 6 7 7 8 9 9 9 9 10 10 11 11 12 12 13 13 13 12 14 14 13 4 8 8 9 10 12 12 11 12 11 10 6 6 6 6 3 4 8 10 11 11 10 10 10 10 10 10 9 8 7 6
6 6 6 6 6 8 8 8 8 9 10 10 11 11 11 12 13 13 12 11 12 13 13 4 4 7 8 9 10 9 10 10 9 8 4 3 5 5 1 3 9 10 10 10 9 9 8 9 9 9 7 6 5 5
5 6 6 5 6 7 7 7 8 8 9 10 10 11 11 11 11 11 10 10 11 12 12 1 1 6 7 7 8 8 8 8 6 5 4 3 3 3 4 4 6 7 8 8 8 7 7 7 7 5 5 5 3 2
5 5 5 6 7 7 6 6 7 7 8 9 9 10 10 10 10 9 9 10 10 11 8 2 3 3 5 5 4 5 5 3 4 3 3 4 2 4 2 2 4 6 5 6 6 6 6 5 4 3 2 1 0 -1
4 4 5 5 5 5 6 5 6 7 8 8 9 10 8 8 8 9 9 9 9 8 7 1 2 2 4 3 2 3 2 2 4 2 3 2 2 2 1 1 2 4 4 5 4 3 3 2 1 -0 -1 -1 -2 -2
4 4 4 4 5 4 4 5 5 6 7 8 8 7 6 7 8 8 5 4 4 4 4 2 3 3 3 2 2 1 2 1 4 1 3 2 2 1 -0 1 1 1 2 2 2 1 -0 -1 -1 -2 -2 -2 -1 -0
1 2 4 4 4 4 4 4 5 6 6 7 7 6 7 7 6 2 1 2 2 2 2 3 3 3 3 4 1 1 1 0 2 2 2 2 0 -1 -0 -0 -0 -0 -0 -0 -0 -1 -1 -1 -1 -1 0 0 0 0
1 2 2 2 4 4 4 4 4 5 6 6 6 6 5 3 3 5 4 3 2 1 1 2 1 2 3 3 1 1 2 2 1 2 3 1 -1 -1 -1 -1 -1 -0 -0 -1 -0 -0 0 0 0 0 0 0 -0 -0
1 1 2 2 2 3 4 4 4 5 5 5 3 2 1 2 0 0 1 0 -0 0 1 2 1 1 1 1 0 2 1 1 3 2 -1 -0 -1 -1 -2 -2 -1 -0 -1 -0 -1 -1 -0 -0 -0 -0 -1 -1 -1 -1
1 1 2 2 2 2 3 3 4 4 3 1 1 -0 -1 -2 -2 -1 -1 -0 -0 0 1 1 1 1 -0 0 -0 -0 0 -0 -1 -2 -1 -2 -2 -2 -1 -1 -1 -1 -0 -0 -1 -1 -1 -1 -1 -1 -1 -2 -2 -2
1 2 2 2 2 3 3 3 4 4 -0 -1 -1 -1 -1 -1 -1 -1 -1 -1 -0 -0 0 1 -0 -1 -1 -0 -1 -0 -1 -3 -2 -1 -1 -1 -1 -1 -1 -1 -1 -1 -1 -1 -1 -1 -1 -2 -2 -2 -2 -2 -3 -3
2 1 1 2 2 3 3 4 4 1 -1 -0 -1 -1 -1 -1 -1 -1 -1 -1 -0 -0 -0 -1 -2 -1 -2 -2 -1 -2 -3 -2 -1 -1 -1 -1 -1 -1 -1 -1 -1 -1 -1 -2 -2 -2 -2 -2 -2 -2 -2 -2 -3 -3
2 1 1 2 3 3 4 2 1 -1 -2 -1 -1 -2 -1 -1 -1 -1 -1 -1 -0 -1 -0 -2 -1 -3 -4 -3 -3 -2 -0 -0 -0 -0 -1 -1 -1 -1 -1 -1 -1 -2 -2 -2 -2 -2 -3 -3 -3 -3 -3 -3 -3 -4
0 1 1 2 3 3 1 0 -0 -2 -2 -2 -2 -2 -2 -1 -1 -1 -1 -1 -1 -1 -0 -0 -5 -5 -5 -1 -1 -1 0 0 0 -0 -1 -1 -1 -1 -1 -2 -2 -2 -3 -3 -3 -3 -3 -4 -4 -5 -5 -5 -5 -6
0 1 1 2 3 1 0 -1 -1 -1 -2 -2 -2 -2 -2 -2 -2 -2 -2 -1 -1 -0 -0 -4 -4 -1 -0 0 1 1 1 0 -0 -1 -2 -2 -2 -2 -2 -3 -3 -3 -3 -3 -4 -4 -4 -4 -5 -6 -7 -7 -7 -7
0 0 1 1 1 0 -1 -1 -1 -2 -2 -3 -3 -3 -3 -3 -3 -2 -2 -2 -1 -2 -1 -1 -1 -1 -1 -0 -0 -0 -0 -1 -1 -1 -1 -3 -4 -3 -3 -4 -4 -4 -4 -4 -4 -5 -6 -7 -8 -8 -8 -9 -9 -9
-0 0 0 0 -0 -1 -2 -2 -2 -2 -2 -3 -3 -3 -3 -4 -3 -3 -3 -3 -3 -3 -3 -2 -2 -2 -1 -1 -1 -2 -2 -2 -2 -2 -3 -4 -4 -4 -4 -4 -4 -5 -6 -7 -7 -8 -8 -9 -9 -10 -10 -10 -11 -11
-0 0 -0 -1 -0 -2 -3 -2 -2 -2 -3 -3 -3 -4 -4 -3 -4 -4 -4 -3 -4 -4 -3 -2 -2 -2 -2 -3 -3 -2 -3 -4 -4 -4 -4 -4 -5 -5 -5 -6 -6 -7 -8 -8 -9 -9 -10 -10 -10 -11 -11 -11 -12 -12
-2 -2 -3 -5 -4 -6 -3 -3 -3 -2 -2 -3 -5 -4 -4 -4 -4 -5 -7 -5 -5 -4 -4 -4 -4 -4 -4 -4 -4 -5 -5 -5 -5 -5 -6 -6 -7 -7 -7 -8 -9 -10 -10 -10 -10 -11 -11 -11 -11 -12 -12 -13 -13 -13
-2 -5 -4 -7 -6 -4 -12 -12 -7 -6 -9 -6 -4 -5 -5 -5 -8 -6 -8 -6 -6 -5 -5 -5 -5 -5 -5 -6 -7 -7 -7 -7 -7 -7 -8 -8 -8 -9 -10 -11 -11 -11 -11 -11 -11 -11 -12 -12 -12 -13 -13 -14 -14 -14
-8 -6 -6 -6 -6 -6 -11 -9 -11 -10 -10 -8 -7 -6 -5 -7 -6 -7 -7 -7 -8 -7 -7 -6 -6 -6 -7 -8 -8 -8 -8 -9 -9 -9 -9 -10 -10 -11 -11 -11 -11 -12 -12 -13 -13 -13 -13 -13 -14 -14 -14 -15 -16 -16
-9 -8 -5 -5 -5 -5 -5 -5 -5 -6 -8 -5 -7 -7 -5 -5 -6 -8 -9 -9 -9 -8 -8 -8 -8 -8 -8 -8 -9 -9 -10 -10 -10 -10 -11 -12 -12 -12 -13 -13 -13 -13 -14 -14 -15 -15 -14 -15 -15 -16 -16 -17 -17 -17
-5 -5 -7 -5 -5 -5 -5 -5 -5 -6 -5 -5 -5 -6 -5 -8 -9 -11 -11 -10 -10 -9 -9 -9 -9 -10 -10 -10 -11 -11 -11 -11 -11 -12 -13 -13 -13 -13 -14 -14 -14 -15 -15 -15 -15 -15 -16 -16 -16 -17 -18 -18 -18 -18
-5 -5 -5 -5 -5 -5 -5 -6 -6 -5 -6 -5 -7 -8 -11 -11 -12 -12 -11 -11 -11 -11 -11 -11 -11 -12 -12 -12 -12 -12 -13 -13 -13 -13 -13 -13 -13 -14 -14 -14 -15 -16 -16 -15 -16 -16 -16 -17 -17 -18 -19 -19 -19 -19
-6 -5 -5 -6 -7 -6 -6 -6 -6 -6 -6 -6 -7 -9 -11 -13 -13 -12 -12 -12 -12 -12 -12 -13 -13 -13 -13 -13 -13 -13 -13 -13 -13 -13 -13 -14 -14 -15 -15 -16 -16 -16 -16 -16 -16 -17 -17 -17 -18 -18 -18 -18 -18 -19
-6 -5 -5 -5 -6 -6 -6 -7 -6 -6 -7 -7 -8 -9 -12 -13 -14 -14 -14 -14 -14 -14 -14 -14 -14 -13 -13 -13 -13 -13 -13 -14 -14 -14 -15 -16 -16 -16 -17 -17 -17 -17 -17 -17 -17 -18 -18 -18 -18 -18 -19 -19 -19 -20
-6 -6 -6 -7 -6 -7 -7 -7 -8 -7 -7 -7 -9 -9 -12 -13 -14 -15 -16 -15 -15 -15 -15 -14 -14 -14 -14 -14 -14 -14 -14 -15 -15 -16 -16 -17 -17 -17 -18 -18 -18 -18 -18 -18 -18 -19 -19 -19 -19 -19 -20 -20 -20 -20
-8 -7 -7 -7 -7 -7 -7 -8 -8 -8 -8 -10 -11 -12 -12 -13 -15 -16 -16 -16 -16 -15 -14 -14 -14 -14 -14 -14 -15 -15 -16 -16 -17 -17 -17 -18 -19 -19 -19 -18 -19 -19 -19 -19 -19 -19 -20 -20 -20 -20 -20 -20 -20 -21

GFSWCAN_850_temp_033.txt.gz
Temp
4 4 5 5 6 7 7 7 8 8 9 10 11 12 12 12 12 13 14 14 14 11 10 11 12 12 11 12 8 9 9 9 5 6 7 6 6 7 8 8 6 8 6 5 2 6 9 8 9 10 11 11 11 11
5 5 5 6 7 7 7 7 8 8 9 10 11 12 12 12 12 13 13 13 13 13 9 10 11 12 13 14 13 10 12 9 10 5 3 2 4 3 5 9 5 8 8 8 8 9 9 10 10 11 11 11 11 11
5 6 7 7 6 7 7 8 8 9 10 10 11 12 12 12 12 12 13 12 12 10 8 10 10 10 12 13 13 12 10 11 11 11 4 2 6 4 6 6 6 6 5 7 7 10 7 9 11 11 11 11 11 10
6 6 6 6 7 7 7 8 9 9 10 11 11 12 12 12 12 13 13 13 13 13 8 8 9 10 11 13 13 14 15 13 12 11 6 2 5 3 4 6 6 7 6 7 7 8 9 11 11 12 12 11 10 9
6 6 6 7 7 7 8 8 9 10 10 11 11 12 12 12 13 13 12 13 14 14 6 8 9 9 11 12 13 14 13 13 11 8 3 4 2 3 1 2 4 6 7 7 8 10 9 10 10 10 10 10 10 8
6 6 6 7 7 7 8 8 9 10 10 11 11 11 11 11 11 12 13 13 14 15 12 4 7 8 9 10 12 11 11 12 11 10 3 4 5 5 3 5 6 7 8 8 8 8 8 9 9 8 8 8 7 6
6 6 6 7 7 7 8 9 10 10 10 10 10 11 11 12 13 14 13 12 13 14 13 4 4 7 8 9 9 9 10 9 9 5 2 3 3 4 2 6 3 5 6 7 7 7 7 7 6 7 6 5 4 3
6 6 6 7 6 7 8 8 9 9 9 10 10 11 11 12 12 11 11 11 13 14 13 2 2 6 7 6 6 7 8 7 5 4 3 3 3 3 4 2 2 3 6 6 5 5 5 5 4 3 3 2 2 -0
6 5 6 5 6 7 8 8 8 8 8 9 10 11 11 12 11 9 10 11 12 13 8 4 4 5 4 4 4 4 5 4 4 3 3 4 2 3 0 -1 -1 1 2 3 3 3 3 2 0 -0 0 0 -1 -2
5 5 5 6 6 7 7 7 7 8 8 9 10 11 9 8 9 10 10 10 10 9 8 0 1 2 3 4 2 3 3 2 5 2 3 2 2 -1 -1 -1 -0 1 3 3 3 -0 -0 -1 -1 -1 -1 -1 -1 -2
4 4 4 5 6 6 6 6 7 8 8 9 9 6 7 8 9 9 6 4 4 2 3 2 2 2 2 3 2 1 2 2 4 4 3 2 2 -1 -1 -1 -0 0 1 0 1 -1 -1 -1 -1 -1 -2 -1 -0 0
4 4 4 5 5 6 6 6 7 7 8 7 8 7 8 8 7 3 1 1 1 2 2 2 2 2 2 3 1 1 1 1 3 2 3 2 -1 -1 -1 -1 -1 -1 -0 -0 0 0 -0 -0 0 0 0 0 0 -0
3 4 4 4 5 5 4 4 5 6 7 8 8 7 5 3 2 2 3 2 2 1 2 2 1 2 2 3 1 1 3 3 1 2 3 1 -1 -1 -1 -1 -1 -1 -0 -0 -0 -0 -0 -0 -0 -1 -1 -1 -1 -2
1 1 3 3 4 4 4 5 5 6 6 6 4 1 -0 2 1 1 1 1 -0 1 1 2 1 1 1 1 0 3 1 1 3 3 1 -0 -1 -2 -2 -1 -1 -1 -1 -1 -1 -1 -1 -1 -1 -2 -2 -2 -2 -2
1 1 1 2 3 3 4 4 5 5 4 2 2 0 -1 -2 -1 -1 -1 -0 -0 0 1 2 1 1 0 1 -0 0 1 1 0 0 -0 -2 -1 -2 -2 -1 -1 -1 -1 -1 -1 -2 -2 -2 -2 -2 -3 -3 -3 -3
2 3 2 2 2 3 3 3 3 4 1 -1 -1 -1 -1 -1 -1 -1 -1 -1 -0 0 1 1 -0 1 0 0 -0 0 1 -0 -0 -1 -2 -2 -2 -2 -2 -2 -2 -2 -2 -2 -2 -2 -2 -3 -3 -3 -3 -3 -3 -3
3 2 2 2 3 3 4 5 3 -0 -1 -1 -2 -1 -1 -1 -1 -1 -1 -1 -0 -0 -0 -1 -0 -0 -2 -1 -0 -1 -1 -1 -1 -1 -1 -1 -1 -1 -2 -2 -2 -2 -2 -2 -3 -3 -3 -3 -3 -3 -2 -3 -3 -4
3 2 2 2 3 4 4 3 0 -0 -2 -2 -2 -2 -2 -1 -1 -1 -1 -1 0 -1 -1 -1 -1 -1 -1 -2 -1 -2 -2 -1 -1 -1 -2 -2 -1 -2 -2 -2 -2 -2 -3 -3 -3 -3 -3 -3 -3 -3 -4 -5 -5 -5
2 2 3 3 4 4 2 -0 -1 -2 -3 -2 -2 -2 -2 -2 -2 -2 -1 -1 -1 -1 -0 -1 -3 -2 -2 -3 -3 -2 -1 -1 -1 -2 -1 -2 -2 -2 -2 -3 -3 -3 -3 -3 -3 -4 -4 -5 -6 -6 -7 -7 -8 -8
1 2 2 3 4 2 -0 -1 -1 -1 -3 -3 -2 -2 -3 -3 -2 -2 -2 -1 -1 -1 -1 -3 -3 -3 -2 -1 -1 0 0 -0 -0 -2 -3 -3 -3 -3 -3 -3 -3 -4 -4 -5 -5 -5 -6 -7 -7 -8 -8 -8 -9 -9
2 2 2 3 2 -0 -1 -2 -2 -2 -2 -3 -3 -3 -3 -3 -3 -2 -2 -2 -1 -3 -3 -3 -3 -3 -2 -2 -1 -1 -1 -1 -1 -1 -2 -4 -4 -4 -4 -4 -5 -5 -5 -6 -6 -7 -8 -8 -8 -9 -9 -10 -10 -10
1 1 1 1 -0 -1 -2 -2 -2 -2 -2 -3 -3 -3 -3 -4 -3 -3 -3 -2 -3 -4 -4 -3 -3 -3 -2 -2 -2 -2 -2 -2 -2 -2 -4 -4 -5 -5 -5 -6 -6 -7 -7 -8 -8 -8 -9 -9 -10 -10 -11 -11 -11 -11
1 1 -0 -1 -1 -2 -3 -2 -2 -2 -2 -3 -3 -4 -4 -4 -4 -4 -4 -4 -5 -5 -4 -4 -3 -3 -3 -4 -4 -4 -3 -4 -4 -5 -5 -5 -6 -6 -7 -7 -8 -8 -8 -9 -9 -10 -10 -11 -11 -11 -12 -12 -12 -13
-0 -1 -3 -5 -4 -6 -3 -4 -4 -3 -3 -4 -4 -5 -4 -5 -5 -5 -5 -5 -6 -5 -5 -5 -4 -4 -5 -5 -5 -5 -6 -6 -6 -6 -7 -7 -8 -8 -8 -9 -9 -9 -9 -10 -11 -11 -12 -12 -12 -13 -13 -13 -14 -15
-2 -5 -4 -6 -6 -5 -9 -10 -8 -4 -9 -7 -7 -8 -6 -5 -7 -6 -7 -7 -8 -6 -6 -6 -6 -6 -6 -7 -8 -8 -8 -8 -8 -8 -8 -9 -9 -9 -10 -10 -10 -11 -11 -11 -12 -12 -13 -13 -13 -14 -14 -15 -16 -16
-8 -7 -6 -9 -7 -8 -9 -10 -9 -10 -11 -8 -7 -6 -6 -7 -6 -7 -8 -9 -9 -9 -8 -8 -7 -7 -8 -8 -8 -9 -9 -9 -9 -9 -10 -10 -10 -11 -11 -11 -12 -12 -13 -13 -13 -13 -14 -14 -15 -15 -16 -16 -17 -17
-8 -7 -6 -6 -6 -6 -6 -6 -6 -7 -9 -8 -7 -7 -6 -5 -8 -9 -10 -10 -9 -9 -9 -8 -8 -8 -9 -9 -10 -10 -10 -10 -10 -11 -11 -11 -12 -12 -12 -13 -13 -14 -14 -14 -15 -15 -15 -16 -16 -17 -17 -17 -18 -18
-6 -6 -8 -5 -5 -5 -6 -7 -8 -7 -7 -6 -6 -7 -6 -8 -9 -12 -12 -11 -11 -10 -10 -10 -10 -10 -10 -11 -11 -11 -11 -11 -12 -12 -12 -13 -13 -13 -14 -15 -15 -15 -16 -16 -16 -16 -17 -17 -17 -17 -18 -18 -18 -19
-5 -6 -5 -6 -6 -6 -6 -7 -6 -6 -6 -6 -7 -9 -11 -12 -13 -12 -12 -12 -12 -11 -11 -11 -11 -12 -12 -12 -12 -12 -12 -12 -13 -13 -13 -14 -14 -15 -15 -16 -16 -16 -17 -17 -17 -17 -17 -18 -18 -18 -19 -19 -19 -19
-6 -6 -6 -6 -9 -7 -7 -7 -7 -7 -6 -7 -8 -10 -12 -13 -13 -13 -13 -13 -13 -13 -13 -13 -13 -13 -13 -13 -13 -13 -13 -14 -14 -14 -14 -15 -15 -16 -16 -17 -17 -17 -17 -17 -18 -18 -18 -18 -19 -19 -19 -19 -19 -19
-6 -6 -5 -5 -6 -7 -7 -7 -7 -7 -7 -8 -9 -10 -13 -14 -15 -14 -14 -14 -14 -14 -14 -14 -14 -14 -14 -13 -14 -14 -14 -14 -15 -15 -15 -16 -17 -17 -17 -18 -18 -18 -18 -18 -19 -19 -19 -19 -19 -19 -19 -20 -20 -20
-6 -7 -7 -11 -7 -7 -7 -7 -7 -8 -7 -9 -10 -11 -13 -14 -15 -15 -16 -16 -15 -15 -15 -14 -14 -14 -14 -14 -15 -15 -15 -15 -16 -16 -17 -17 -18 -18 -18 -18 -18 -19 -19 -19 -19 -19 -19 -20 -20 -20 -20 -20 -21 -21
-8 -8 -8 -8 -8 -7 -8 -9 -9 -10 -10 -11 -13 -13 -13 -14 -16 -16 -17 -16 -16 -16 -15 -15 -15 -15 -15 -15 -16 -16 -16 -17 -17 -17 -18 -18 -18 -19 -19 -19 -19 -19 -19 -19 -20 -20 -20 -20 -20 -21 -21 -21 -21 -21

GFSWCAN_850_temp_036.txt.gz
Temp
0 1 2 3 4 5 5 5 6 6 7 7 8 9 10 10 11 12 13 14 15 11 9 11 12 12 12 14 14 11 12 11 11 11 12 13 12 13 13 14 12 12 11 9 9 10 11 12 12 13 14 13 12 12
3 3 4 4 5 5 6 6 7 7 8 8 9 9 10 11 10 12 13 13 14 13 9 10 12 13 14 13 12 11 14 13 14 13 10 9 8 6 11 14 11 13 14 14 13 15 13 12 13 12 11 11 12 11
4 4 4 5 5 6 7 7 8 8 8 9 9 10 11 11 11 12 13 13 13 9 8 10 9 11 12 13 14 13 11 12 11 11 10 9 8 11 8 12 12 12 10 12 11 15 13 12 12 12 11 11 10 10
5 5 6 6 7 7 7 7 8 9 9 10 10 11 11 11 11 12 13 12 12 11 8 9 9 10 11 12 13 14 15 13 13 10 8 6 9 8 10 12 12 12 11 12 12 13 13 12 11 10 10 10 9 9
5 6 6 6 7 7 7 8 8 9 10 10 11 11 11 11 11 12 13 13 12 12 7 8 8 9 11 12 12 13 13 13 11 9 6 9 8 8 6 8 10 10 11 11 12 10 10 11 9 8 8 8 7 7
6 6 6 7 7 7 8 9 10 11 11 11 11 11 11 11 12 13 12 12 12 12 11 8 7 7 8 10 11 11 12 12 10 10 5 7 5 8 7 11 7 7 7 7 9 7 8 7 7 5 5 5 4 4
6 6 7 7 7 8 8 9 10 10 10 10 10 10 11 11 11 13 13 13 13 12 12 6 7 7 8 9 9 9 10 10 8 5 4 5 5 8 5 11 5 5 5 5 5 6 8 4 4 3 2 1 1 -0
6 6 6 7 7 8 9 8 9 8 8 9 9 9 10 10 13 13 13 12 13 13 13 6 6 7 7 5 5 6 6 7 5 4 4 4 4 5 6 3 3 3 4 4 3 4 3 2 2 1 -1 -1 -1 -1
6 6 6 7 7 7 8 8 8 9 9 9 10 10 10 10 10 9 11 12 12 13 9 5 7 7 4 3 4 5 5 5 4 4 4 6 4 4 1 1 1 0 1 1 2 2 1 -0 -1 -2 -1 -1 -1 -2
6 6 6 6 7 7 7 8 8 8 9 10 10 11 10 9 10 10 11 12 12 10 8 2 2 4 4 4 3 4 3 4 6 4 3 4 1 -0 -1 -1 -0 0 0 1 1 -1 -1 -2 -1 -1 -1 -1 -1 -1
6 6 6 6 6 7 8 9 8 8 9 10 9 7 8 9 10 9 6 6 6 4 3 2 3 4 3 5 3 2 4 4 6 6 6 4 2 -0 -1 -1 -1 -1 -1 1 1 -0 -0 0 0 0 -0 -0 -1 -2
5 6 5 5 6 6 7 7 8 8 9 8 9 8 8 8 8 4 3 3 4 4 2 3 2 2 2 3 3 3 3 3 4 4 5 4 1 -1 -1 -1 -1 -1 -1 -1 -1 -1 -2 -2 -2 -2 -1 -1 -1 -1
4 4 4 5 5 6 6 6 6 7 8 8 8 8 7 4 5 6 5 4 4 1 2 2 2 2 2 2 2 3 4 4 4 3 5 2 -1 -1 -1 -1 -1 -2 -2 -2 -2 -1 -1 -1 -1 -1 -2 -2 -2 -2
3 4 4 4 4 5 5 6 6 6 7 6 4 3 3 4 3 2 3 2 -0 1 2 2 1 2 2 2 1 4 2 2 4 4 3 1 -1 -2 -1 -1 -1 -1 -1 -1 -1 -1 -1 -1 -2 -2 -2 -2 -2 -2
1 2 3 4 4 4 4 4 5 6 5 2 2 2 1 -1 -1 -1 -1 -0 -0 1 2 2 1 2 1 2 1 2 3 4 4 4 2 -1 -2 -2 -2 -2 -2 -1 -1 -1 -2 -2 -2 -2 -3 -3 -3 -3 -3 -3
2 1 2 2 3 3 4 4 5 5 1 -0 -1 -0 -1 -0 -1 -1 -1 -1 0 1 1 2 1 3 2 2 3 3 4 4 2 1 -2 -2 -2 -2 -2 -3 -2 -2 -2 -2 -2 -2 -3 -3 -3 -3 -4 -3 -3 -3
3 2 2 2 3 3 3 3 2 -0 -1 -1 -1 -1 -1 -1 -1 -1 -1 -1 -0 0 1 1 3 2 1 2 2 2 2 2 -1 -2 -2 -2 -2 -2 -2 -2 -2 -2 -2 -2 -3 -3 -3 -4 -4 -4 -4 -4 -4 -5
3 2 3 3 4 4 5 2 0 -0 -2 -2 -1 -2 -2 -1 -1 -1 -1 -1 -0 -0 0 1 1 1 2 2 2 0 -2 -1 -2 -2 -2 -2 -2 -2 -2 -3 -3 -3 -3 -3 -4 -4 -4 -4 -5 -5 -5 -6 -6 -7
3 3 3 4 4 4 1 -0 -0 -1 -2 -2 -2 -2 -2 -2 -2 -2 -1 -1 -0 -0 0 0 1 2 2 1 -1 -2 -1 -2 -2 -2 -2 -2 -2 -3 -3 -3 -3 -4 -4 -4 -5 -5 -5 -5 -6 -6 -7 -7 -8 -9
2 3 4 4 4 2 -1 -2 -1 -2 -2 -3 -3 -3 -3 -3 -2 -2 -1 -1 -1 -1 -1 0 -1 -2 -2 -3 -3 -2 -2 -2 -2 -4 -5 -5 -4 -4 -4 -4 -5 -5 -5 -5 -5 -6 -6 -7 -7 -8 -8 -9 -9 -10
3 3 3 4 2 -1 -2 -2 -2 -2 -2 -3 -3 -3 -3 -3 -3 -2 -2 -2 -2 -3 -2 -4 -5 -5 -3 -3 -2 -2 -2 -3 -3 -3 -4 -6 -6 -5 -5 -5 -5 -6 -6 -6 -7 -7 -8 -9 -9 -9 -10 -10 -11 -11
2 2 2 1 -0 -2 -2 -2 -2 -2 -3 -3 -3 -3 -3 -3 -3 -4 -3 -2 -3 -4 -5 -4 -5 -5 -4 -3 -2 -2 -2 -2 -2 -3 -4 -5 -6 -7 -6 -6 -7 -7 -7 -8 -9 -9 -10 -10 -10 -11 -11 -11 -12 -12
2 1 0 -0 -1 -2 -3 -2 -2 -2 -1 -2 -2 -2 -2 -3 -4 -3 -3 -4 -5 -5 -5 -4 -4 -4 -4 -5 -4 -4 -4 -4 -4 -5 -5 -6 -6 -7 -7 -8 -8 -9 -9 -10 -10 -10 -11 -11 -11 -12 -12 -13 -13 -14
0 -1 -2 -4 -4 -5 -4 -5 -4 -3 -2 -2 -2 -2 -3 -3 -4 -3 -3 -4 -7 -7 -6 -6 -6 -6 -6 -6 -6 -6 -6 -6 -6 -6 -7 -7 -8 -8 -9 -9 -9 -10 -10 -11 -11 -12 -12 -12 -13 -13 -14 -14 -15 -15
-1 -5 -4 -5 -6 -5 -5 -5 -4 -2 -3 -4 -3 -3 -4 -5 -4 -4 -4 -6 -8 -8 -8 -7 -7 -7 -7 -8 -8 -8 -8 -8 -8 -8 -8 -9 -10 -10 -10 -11 -11 -11 -11 -12 -12 -12 -13 -14 -14 -15 -15 -16 -16 -16
-6 -7 -5 -6 -5 -4 -5 -3 -4 -4 -4 -3 -4 -6 -5 -4 -4 -5 -7 -9 -9 -9 -9 -9 -8 -8 -8 -9 -9 -9 -9 -9 -9 -10 -10 -10 -11 -11 -11 -12 -13 -13 -12 -13 -13 -14 -15 -15 -15 -16 -16 -16 -17 -18
-5 -6 -6 -6 -6 -5 -5 -6 -6 -4 -4 -3 -3 -4 -3 -3 -5 -8 -10 -10 -11 -10 -9 -9 -9 -9 -9 -10 -10 -10 -10 -10 -11 -11 -11 -11 -12 -12 -12 -13 -13 -14 -14 -15 -15 -16 -16 -16 -16 -17 -17 -17 -19 -19
-6 -6 -5 -6 -5 -6 -5 -5 -4 -4 -4 -5 -4 -4 -4 -5 -7 -11 -12 -12 -11 -11 -10 -10 -10 -10 -10 -11 -11 -11 -12 -12 -12 -12 -12 -12 -12 -13 -13 -14 -15 -16 -16 -16 -16 -17 -17 -17 -17 -18 -18 -18 -19 -19
-6 -6 -6 -7 -6 -6 -6 -5 -5 -6 -7 -6 -5 -6 -10 -13 -13 -13 -12 -12 -12 -12 -12 -12 -12 -12 -12 -12 -13 -13 -13 -13 -13 -13 -14 -14 -15 -16 -15 -16 -16 -17 -17 -17 -17 -18 -18 -18 -18 -18 -19 -19 -19 -19
-6 -6 -6 -7 -6 -5 -7 -7 -7 -7 -7 -8 -9 -12 -13 -14 -14 -13 -13 -13 -13 -13 -13 -13 -13 -13 -14 -14 -14 -14 -14 -14 -14 -14 -15 -15 -16 -16 -16 -17 -17 -17 -18 -18 -18 -18 -18 -19 -19 -19 -20 -20 -20 -20
-6 -6 -5 -5 -6 -7 -7 -7 -7 -8 -8 -9 -10 -12 -14 -15 -15 -15 -15 -14 -14 -14 -14 -14 -14 -14 -14 -14 -14 -15 -15 -15 -15 -15 -16 -16 -17 -17 -18 -18 -18 -18 -18 -19 -19 -19 -19 -19 -20 -20 -20 -20 -20 -21
-7 -8 -8 -6 -7 -8 -8 -8 -8 -9 -10 -11 -13 -13 -14 -15 -16 -16 -16 -16 -16 -16 -15 -15 -15 -15 -15 -15 -15 -15 -15 -16 -16 -16 -17 -17 -18 -18 -18 -18 -19 -19 -19 -19 -19 -20 -20 -20 -20 -20 -21 -21 -21 -21
-9 -9 -9 -9 -9 -8 -9 -10 -11 -11 -11 -12 -14 -14 -15 -15 -16 -17 -17 -17 -17 -16 -16 -16 -16 -16 -16 -16 -16 -16 -16 -17 -17 -17 -17 -18 -18 -18 -19 -19 -19 -19 -20 -20 -20 -20 -20 -21 -21 -21 -21 -21 -21 -21

GFSWCAN_850_temp_039.txt.gz
Temp
-0 0 1 1 1 1 0 -0 0 1 2 4 5 6 6 7 8 6 9 12 15 14 13 14 16 17 17 18 16 15 14 14 15 13 14 15 13 16 16 18 14 13 13 10 13 10 11 16 16 15 15 15 15 15
1 1 1 1 1 -0 0 2 3 4 5 5 6 6 7 8 8 7 9 13 14 14 11 10 12 14 15 15 17 14 17 16 16 17 14 13 10 8 15 15 16 15 16 16 16 16 16 15 16 15 14 14 14 13
0 0 -0 0 0 1 2 4 5 5 6 6 6 7 7 9 8 7 10 13 15 11 10 11 11 12 14 14 15 16 14 16 15 15 14 13 10 14 10 15 16 16 14 15 15 17 17 16 15 14 13 12 12 12
1 2 2 3 4 4 4 6 6 7 7 7 7 8 9 10 9 8 9 13 14 12 9 10 9 9 11 13 13 14 14 14 13 14 11 8 9 14 14 15 15 15 14 15 15 16 15 15 13 11 10 11 11 11
4 4 4 5 5 6 7 7 7 8 8 8 9 10 10 10 9 7 10 12 13 13 9 10 9 8 9 10 12 13 13 13 13 12 8 12 12 12 11 12 14 14 15 13 14 12 11 12 10 8 9 8 8 8
5 5 5 6 6 6 7 8 8 9 9 10 10 11 11 11 8 9 12 11 12 11 10 10 8 8 8 9 10 11 12 13 14 11 10 11 9 13 9 13 11 10 9 9 11 9 9 8 6 6 5 5 5 4
6 6 6 7 7 9 10 10 10 10 10 10 10 10 10 9 9 11 13 12 12 12 9 9 9 7 7 9 8 10 10 10 12 10 6 10 10 12 7 12 9 7 7 8 7 8 8 6 5 4 2 0 0 -0
7 7 7 7 7 7 9 10 10 10 10 10 10 10 10 8 9 11 12 12 12 11 11 8 7 8 7 7 7 7 8 10 7 6 6 7 7 7 10 7 6 5 7 5 6 6 5 4 2 1 0 -1 -1 -1
6 6 6 7 7 7 7 7 8 9 8 9 9 9 8 9 10 10 11 11 11 10 10 5 7 7 6 5 5 6 8 6 6 6 7 8 6 7 6 5 4 3 3 4 3 2 2 1 1 -0 -1 -1 -0 -1
6 7 7 7 7 8 8 7 7 7 8 8 9 10 10 9 10 11 11 10 9 8 6 4 6 7 7 6 5 6 4 6 7 6 6 6 5 3 1 1 1 1 3 2 2 1 0 0 -1 -0 0 -0 -0 0
6 6 6 6 6 8 8 9 9 9 10 10 10 7 8 10 11 11 7 9 9 6 4 4 7 6 4 6 4 4 5 6 6 7 7 5 4 3 -0 0 0 1 2 2 2 1 0 0 -1 -1 -1 -2 -2 -2
6 6 6 6 6 7 8 9 9 10 10 10 9 9 9 8 8 5 4 4 6 5 3 4 4 4 3 5 5 5 4 5 6 6 6 6 3 -0 -0 0 -0 1 1 1 1 0 0 -0 -1 -1 -1 -2 -2 -2
5 5 6 6 7 7 7 8 8 9 9 9 9 8 7 4 6 6 4 4 4 2 2 3 3 3 3 4 3 5 5 6 6 5 6 4 -0 -1 -0 0 0 0 -0 -0 -0 -1 -1 -2 -1 -2 -2 -2 -3 -3
4 5 5 5 6 6 7 8 7 7 8 6 5 4 4 5 3 3 3 3 0 1 2 2 2 3 3 3 3 4 2 5 4 5 5 2 -1 -0 0 1 0 -1 -1 -1 -1 -2 -1 -2 -2 -2 -2 -2 -2 -2
3 4 4 5 5 5 5 6 7 7 5 2 2 3 2 -1 -1 -1 -0 -0 0 1 2 2 3 4 3 3 3 3 3 4 6 5 3 -0 -1 -0 -0 0 -1 -1 -1 -2 -2 -2 -2 -2 -3 -3 -3 -3 -3 -3
2 3 3 3 4 4 4 5 6 5 1 -1 -1 0 -1 0 -0 -1 -0 -1 0 1 2 3 4 5 3 3 3 5 6 6 3 2 -0 -1 -1 -1 -0 -1 -1 -1 -2 -2 -3 -2 -2 -3 -3 -3 -3 -3 -4 -4
3 3 3 2 3 3 4 5 3 0 -1 -0 -1 -1 -1 -1 -1 -1 -1 -1 0 1 2 3 5 3 2 4 3 3 3 2 -1 -1 -2 -1 -2 -1 -2 -3 -2 -3 -3 -4 -3 -3 -3 -4 -4 -4 -6 -6 -6 -8
3 2 3 3 3 3 4 1 -0 -1 -1 -1 -1 -2 -2 -1 -1 -1 -1 -0 0 0 1 2 3 2 4 3 3 1 -1 -1 -2 -2 -2 -2 -2 -2 -2 -3 -3 -4 -3 -4 -4 -4 -4 -5 -6 -7 -8 -8 -8 -9
3 3 3 4 4 4 0 -0 -1 -1 -2 -2 -2 -2 -2 -2 -2 -2 -1 -1 -1 -0 0 1 3 3 2 0 -0 -1 -2 -2 -2 -3 -3 -2 -2 -2 -3 -3 -5 -5 -6 -6 -6 -7 -7 -6 -7 -8 -9 -8 -9 -11
3 3 4 4 4 2 -1 -1 -1 -1 -1 -2 -2 -2 -2 -2 -2 -1 -1 -1 -0 1 -0 -0 -1 -3 -3 -3 -2 -1 -1 -2 -2 -3 -4 -4 -4 -4 -5 -5 -5 -7 -6 -6 -6 -7 -9 -9 -10 -9 -9 -9 -11 -12
3 3 4 4 2 -1 -2 -1 -2 -2 -2 -2 -3 -2 -2 -2 -2 -2 -2 -1 -2 -3 -1 -4 -4 -5 -4 -4 -3 -2 -2 -2 -2 -3 -3 -5 -5 -6 -7 -7 -7 -8 -8 -9 -9 -10 -9 -10 -10 -10 -10 -12 -12 -14
2 3 2 1 -1 -2 -2 -2 -1 -2 -2 -2 -2 -2 -2 -2 -2 -3 -2 -2 -3 -4 -4 -4 -4 -4 -5 -5 -4 -4 -3 -3 -3 -4 -5 -6 -7 -7 -8 -8 -8 -9 -9 -8 -9 -9 -10 -10 -10 -11 -12 -13 -14 -15
2 2 1 -0 -1 -2 -3 -2 -2 -1 -1 -1 -1 -1 -1 -2 -3 -2 -3 -3 -4 -6 -6 -6 -6 -6 -6 -7 -6 -6 -6 -6 -6 -7 -7 -8 -8 -9 -9 -8 -9 -10 -11 -10 -10 -10 -11 -11 -13 -12 -15 -15 -16 -16
1 -0 -2 -3 -3 -3 -4 -3 -2 -1 -1 -1 -0 -2 -2 -2 -3 -2 -2 -5 -6 -6 -6 -6 -7 -7 -7 -7 -8 -8 -8 -8 -8 -9 -9 -9 -10 -10 -10 -9 -9 -9 -10 -10 -11 -12 -13 -14 -14 -15 -15 -15 -17 -18
-1 -5 -4 -3 -4 -2 -2 -2 -2 -1 -2 -2 -1 -2 -3 -3 -2 -3 -3 -6 -7 -8 -7 -7 -8 -8 -8 -9 -9 -8 -9 -9 -9 -9 -9 -10 -10 -11 -11 -11 -10 -11 -11 -12 -13 -13 -14 -14 -15 -15 -15 -18 -18 -19
-4 -5 -4 -4 -3 -2 -2 -2 -3 -3 -2 -2 -3 -4 -4 -2 -3 -4 -5 -8 -9 -10 -10 -9 -8 -9 -9 -10 -10 -10 -10 -10 -10 -10 -11 -11 -12 -13 -13 -14 -14 -15 -13 -13 -13 -14 -14 -15 -15 -16 -18 -19 -19 -19
-4 -4 -5 -6 -5 -4 -3 -4 -4 -2 -2 -2 -2 -2 -2 -2 -3 -7 -9 -11 -10 -12 -11 -10 -11 -11 -12 -12 -10 -10 -10 -10 -11 -11 -11 -11 -12 -12 -12 -13 -14 -14 -14 -14 -14 -15 -16 -16 -18 -19 -20 -20 -20 -20
-5 -5 -4 -5 -4 -4 -3 -3 -3 -3 -3 -4 -3 -3 -3 -5 -6 -10 -12 -13 -12 -11 -11 -11 -11 -11 -11 -12 -12 -12 -12 -12 -12 -12 -12 -12 -12 -12 -13 -13 -13 -14 -14 -15 -15 -16 -17 -17 -19 -20 -20 -21 -21 -21
-5 -6 -5 -5 -4 -4 -5 -4 -4 -5 -6 -5 -4 -5 -8 -12 -14 -13 -14 -13 -13 -13 -13 -14 -13 -13 -13 -13 -13 -13 -13 -13 -14 -14 -15 -15 -16 -17 -15 -15 -16 -16 -16 -17 -17 -18 -18 -18 -18 -19 -19 -19 -21 -22
-5 -6 -4 -5 -4 -4 -6 -7 -6 -8 -9 -9 -10 -11 -12 -15 -16 -15 -14 -14 -14 -14 -13 -14 -14 -15 -15 -15 -16 -14 -13 -13 -13 -14 -14 -16 -16 -16 -16 -17 -18 -19 -18 -19 -19 -19 -19 -20 -19 -22 -22 -22 -22 -22
-6 -5 -4 -4 -5 -7 -8 -7 -7 -8 -9 -10 -11 -10 -12 -15 -16 -15 -14 -15 -15 -16 -16 -16 -16 -16 -15 -15 -15 -15 -16 -14 -14 -15 -15 -16 -16 -17 -19 -19 -19 -19 -19 -19 -20 -20 -21 -20 -21 -22 -22 -23 -22 -22
-7 -7 -6 -5 -5 -8 -9 -8 -8 -7 -8 -9 -11 -12 -13 -12 -13 -17 -16 -16 -17 -17 -16 -17 -17 -16 -15 -15 -15 -15 -15 -16 -16 -16 -16 -17 -17 -18 -18 -19 -19 -20 -20 -20 -20 -21 -22 -22 -22 -22 -23 -23 -22 -21
-7 -7 -8 -7 -6 -6 -8 -9 -8 -8 -9 -10 -12 -12 -13 -13 -14 -17 -17 -17 -16 -16 -16 -16 -16 -16 -16 -16 -16 -16 -17 -17 -17 -17 -17 -18 -18 -18 -19 -19 -19 -20 -20 -20 -21 -22 -22 -22 -21 -22 -22 -22 -22 -22

GFSWCAN_850_temp_042.txt.gz
Temp
-0 -0 -0 -1 -1 0 0 0 0 1 1 1 1 1 2 3 2 2 7 7 5 10 16 17 18 19 16 11 10 15 15 15 15 13 14 15 13 16 17 18 13 12 12 10 13 9 10 17 16 15 15 15 15 15
-0 -1 -1 -1 -1 -0 0 0 0 1 1 1 1 1 3 4 4 3 3 7 9 8 12 15 13 13 16 15 15 14 17 16 16 16 14 14 10 8 13 15 18 15 16 15 14 14 16 17 16 15 15 14 14 13
-0 -0 -0 -0 0 0 0 -0 -1 -0 0 1 2 2 4 4 4 5 5 7 10 11 11 13 12 13 15 16 15 15 17 18 17 17 15 13 9 14 9 14 16 17 16 15 15 18 17 16 15 13 12 12 12 12
-1 -0 0 0 0 -0 -1 -1 -0 0 1 1 3 4 4 4 4 5 5 8 11 13 9 10 11 12 14 13 13 16 16 16 15 15 12 7 9 16 13 16 15 16 16 16 16 16 16 13 11 10 10 10 10 10
-0 -1 -1 -1 -1 -1 -0 0 2 2 2 4 4 4 4 5 6 6 7 7 11 13 9 10 10 10 12 13 13 14 15 15 14 12 6 12 14 12 12 13 14 15 15 13 13 12 12 10 9 9 8 7 7 7
2 2 2 1 1 2 3 3 4 5 5 5 6 6 6 7 7 6 7 11 13 11 10 9 9 10 11 12 12 13 13 15 15 11 11 13 11 13 9 13 13 11 11 11 12 10 10 8 6 5 4 4 3 3
3 4 4 4 4 5 4 4 5 6 7 7 7 7 7 7 7 7 9 11 12 12 10 8 8 8 10 10 10 12 12 12 13 11 9 11 11 12 7 12 11 10 9 9 8 8 7 8 5 2 1 1 2 1
5 6 6 6 6 6 7 7 7 8 8 8 8 7 7 8 7 8 9 10 11 11 10 7 5 8 8 9 8 8 11 11 8 7 8 9 8 9 10 10 9 8 8 7 7 7 6 4 3 2 1 -0 -1 -1
5 5 6 7 7 7 7 8 8 8 8 8 8 8 7 8 8 9 9 11 11 11 9 5 7 7 7 6 6 7 9 6 7 6 8 8 7 8 10 8 6 6 6 5 4 4 3 3 2 1 0 -0 -1 -0
5 6 7 5 6 7 7 7 8 8 8 8 8 9 8 9 9 10 10 10 10 8 6 5 7 7 7 6 5 6 6 7 8 6 6 6 5 4 3 3 3 4 4 3 3 2 2 1 1 1 1 -0 -1 -1
6 5 6 6 6 6 6 7 7 7 7 8 9 7 8 9 9 10 8 9 8 6 5 6 7 7 6 6 5 5 5 7 7 7 7 6 6 3 2 2 2 3 3 3 2 2 1 0 0 -0 -0 -1 -1 -1
6 6 6 6 7 7 8 7 7 8 9 10 9 9 9 9 8 5 4 4 6 6 3 4 5 5 4 7 6 6 4 6 7 7 6 6 3 2 2 2 3 2 2 1 1 1 0 0 -0 -1 -2 -2 -2 -2
5 5 5 6 7 7 8 8 9 9 9 10 10 9 8 4 5 6 5 5 4 2 2 3 3 4 4 5 4 5 5 6 7 5 7 4 1 1 1 1 2 1 1 1 0 -1 -1 -1 -2 -1 -2 -3 -3 -3
5 5 6 7 7 6 7 8 8 9 10 7 4 3 4 4 3 2 3 2 0 2 3 3 3 3 3 3 4 4 3 5 5 5 6 1 -0 0 1 1 0 0 0 -0 -1 -2 -1 -1 -2 -2 -2 -3 -3 -3
4 5 5 6 6 6 7 7 8 7 6 2 2 2 1 -1 -1 -1 -0 0 1 2 3 3 3 4 3 3 3 3 3 5 5 5 2 -0 -0 0 0 0 -0 -1 -1 -2 -2 -2 -2 -3 -3 -3 -3 -3 -3 -4
3 4 4 4 5 5 6 6 7 6 1 -0 -1 0 -0 0 -0 -0 -0 -0 0 2 3 4 4 4 3 3 4 5 5 6 3 1 -0 -0 -0 -0 -1 -2 -1 -1 -1 -2 -2 -2 -3 -3 -4 -4 -4 -4 -4 -4
4 3 3 4 4 5 5 6 4 0 -1 -1 -1 -1 -1 -1 -1 -2 -1 -0 1 1 2 3 4 3 3 4 4 2 2 1 -0 -1 -1 -0 -1 -1 -1 -1 -1 -2 -3 -4 -4 -4 -3 -4 -4 -5 -6 -5 -6 -8
3 3 3 4 4 4 4 2 0 0 -1 -2 -1 -2 -2 -2 -2 -2 -1 -0 1 0 1 2 3 3 4 4 3 0 -1 -1 -1 -1 -1 -1 -2 -2 -2 -2 -3 -3 -4 -5 -4 -4 -5 -6 -6 -7 -7 -7 -8 -9
3 3 4 4 5 3 1 0 -1 -1 -2 -2 -2 -2 -2 -2 -2 -1 -1 -0 -0 0 0 1 2 2 1 -1 -1 -2 -2 -2 -2 -2 -2 -2 -2 -2 -3 -3 -3 -4 -5 -5 -5 -6 -6 -6 -7 -8 -8 -8 -8 -10
3 3 4 5 5 2 -1 -1 -0 -1 -1 -2 -2 -2 -2 -2 -2 -1 -1 -1 -0 -1 -1 -1 -2 -3 -3 -3 -1 -1 -2 -2 -2 -3 -3 -3 -3 -3 -3 -4 -5 -6 -6 -6 -6 -7 -8 -8 -9 -9 -8 -9 -10 -10
3 3 4 4 2 -1 -2 -1 -1 -2 -2 -2 -2 -1 -2 -2 -2 -2 -2 -1 -2 -3 -2 -4 -4 -4 -3 -3 -1 -1 -2 -2 -2 -2 -3 -4 -4 -5 -5 -6 -7 -7 -7 -8 -8 -9 -9 -9 -9 -9 -10 -11 -11 -12
2 3 3 1 -0 -1 -2 -1 -1 -1 -1 -2 -1 -1 -1 -1 -2 -2 -2 -2 -4 -4 -5 -4 -4 -5 -5 -5 -4 -3 -3 -2 -3 -3 -4 -5 -6 -7 -7 -7 -8 -8 -9 -10 -10 -10 -11 -9 -10 -10 -11 -12 -13 -15
3 2 1 -0 -1 -2 -3 -1 -1 -0 -0 -1 -0 -0 -1 -1 -2 -2 -2 -4 -5 -5 -6 -6 -6 -6 -7 -7 -6 -6 -5 -5 -5 -6 -6 -6 -7 -8 -8 -9 -9 -10 -11 -10 -10 -11 -11 -11 -12 -12 -14 -15 -16 -16
1 -0 -1 -3 -3 -3 -3 -2 -1 -1 -1 -0 -0 -1 -2 -2 -2 -1 -3 -5 -6 -6 -6 -6 -6 -6 -7 -7 -7 -8 -8 -8 -8 -8 -8 -9 -9 -10 -10 -10 -10 -10 -10 -11 -12 -12 -12 -13 -13 -15 -16 -16 -17 -17
-1 -4 -3 -2 -2 -1 -1 -1 -1 -0 -1 -1 -1 -1 -2 -2 -2 -2 -3 -5 -8 -8 -8 -7 -7 -7 -8 -9 -10 -9 -9 -9 -9 -9 -10 -10 -10 -11 -12 -11 -11 -11 -11 -12 -12 -12 -13 -14 -16 -16 -16 -18 -18 -18
-3 -5 -3 -3 -3 -2 -2 -2 -2 -2 -1 -1 -3 -3 -3 -1 -2 -4 -6 -8 -10 -11 -10 -10 -8 -10 -11 -11 -11 -10 -10 -11 -11 -10 -11 -11 -11 -12 -12 -13 -13 -14 -12 -13 -13 -14 -15 -16 -16 -17 -18 -18 -19 -19
-3 -3 -4 -4 -4 -3 -3 -3 -2 -2 -2 -2 -2 -2 -1 -2 -4 -7 -10 -11 -11 -12 -11 -11 -11 -12 -12 -13 -11 -11 -11 -11 -11 -11 -12 -12 -11 -12 -12 -13 -13 -13 -14 -14 -14 -15 -15 -17 -18 -19 -20 -19 -19 -19
-5 -5 -4 -4 -3 -3 -2 -2 -2 -3 -4 -4 -3 -4 -4 -6 -7 -10 -11 -12 -12 -12 -12 -11 -11 -11 -12 -13 -13 -14 -14 -13 -12 -13 -13 -13 -13 -13 -13 -14 -14 -14 -15 -17 -17 -18 -18 -19 -20 -20 -21 -21 -21 -21
-5 -5 -4 -5 -3 -4 -5 -4 -4 -6 -7 -6 -4 -6 -9 -12 -13 -13 -13 -12 -12 -12 -13 -13 -14 -14 -14 -14 -13 -13 -13 -13 -14 -14 -14 -15 -15 -16 -15 -16 -17 -18 -19 -19 -20 -21 -21 -20 -20 -21 -20 -21 -21 -22
-5 -5 -3 -4 -4 -4 -6 -7 -7 -8 -8 -8 -10 -11 -13 -14 -15 -14 -14 -14 -14 -14 -14 -14 -15 -14 -14 -15 -16 -15 -14 -14 -14 -14 -15 -16 -16 -16 -17 -19 -19 -19 -20 -20 -21 -21 -21 -21 -21 -21 -21 -21 -21 -22
-6 -4 -4 -4 -5 -7 -7 -7 -7 -8 -9 -10 -10 -10 -13 -15 -15 -15 -15 -15 -15 -15 -15 -15 -16 -17 -17 -15 -16 -16 -17 -16 -15 -15 -16 -16 -16 -17 -19 -19 -20 -20 -21 -21 -22 -22 -22 -22 -22 -22 -22 -22 -22 -23
-6 -6 -5 -4 -5 -8 -8 -7 -7 -7 -8 -9 -10 -11 -12 -11 -13 -17 -16 -16 -16 -17 -17 -17 -17 -18 -16 -16 -16 -16 -16 -16 -16 -16 -16 -17 -17 -18 -18 -18 -19 -20 -22 -22 -22 -22 -22 -22 -22 -23 -23 -23 -23 -23
-6 -6 -6 -5 -5 -6 -7 -7 -6 -8 -8 -9 -11 -11 -13 -13 -15 -17 -18 -17 -17 -18 -18 -17 -17 -16 -16 -16 -16 -17 -17 -18 -17 -18 -17 -17 -18 -18 -19 -19 -20 -20 -21 -21 -21 -22 -23 -23 -23 -23 -23 -23 -23 -23

GFSWCAN_850_temp_045.txt.gz
Temp
-1 -1 -1 -1 -1 -1 -1 -1 -1 -1 -1 -1 -0 1 1 1 2 3 3 2 3 4 9 12 15 15 13 12 8 10 11 10 10 9 8 7 7 10 11 12 9 9 7 5 6 7 9 16 15 12 11 13 13 13
-1 -1 -1 -1 -1 -1 -1 -0 -1 -1 0 1 1 1 1 2 3 4 2 4 3 4 6 9 13 14 15 15 11 11 12 10 13 10 8 6 8 5 9 9 13 9 9 8 9 8 12 14 12 12 12 12 12 12
-1 -1 -1 -1 -1 -1 -1 -0 -1 0 0 0 1 1 2 2 3 1 2 2 3 4 5 6 11 14 15 14 16 12 12 13 16 16 9 7 7 6 6 7 12 14 15 11 11 13 12 10 11 11 11 10 10 10
-0 -1 -1 -1 -1 -1 -1 -1 -0 0 0 1 1 1 1 1 1 1 1 2 4 4 2 8 10 11 13 13 16 16 15 16 16 16 7 4 6 12 6 10 9 11 13 12 11 10 9 9 9 9 9 9 9 8
-1 -1 -1 -1 -1 -1 -0 -0 -0 -0 -0 0 0 -0 1 0 1 1 1 3 5 4 7 8 11 11 11 12 13 14 14 16 15 9 4 6 10 8 7 7 6 13 11 7 6 9 8 7 7 8 8 6 6 7
-0 -0 -1 -0 -0 -1 -0 -0 -0 -0 0 1 1 1 1 2 2 2 3 5 5 4 7 6 9 11 12 12 15 13 14 15 13 11 8 11 11 10 4 4 10 10 10 11 9 9 7 6 6 6 6 5 4 4
-1 -1 -0 -1 -1 -1 -1 -1 -0 0 1 1 2 2 2 3 3 4 6 7 7 7 9 5 6 10 10 11 12 11 13 11 12 9 9 9 10 8 3 5 9 9 9 8 8 7 5 5 2 3 4 2 2 2
3 3 2 1 1 0 0 1 2 3 3 2 3 2 3 4 4 5 7 8 9 9 9 5 4 7 9 9 8 9 10 9 7 7 8 6 7 8 4 7 9 8 7 7 7 8 5 2 2 1 1 1 1 0
4 4 4 4 3 3 3 3 4 4 4 4 4 4 5 5 6 8 9 10 11 11 4 4 5 6 8 6 7 8 8 5 7 3 6 6 4 5 7 6 7 7 6 4 4 3 2 2 1 -0 0 -0 -1 -1
6 6 6 5 5 5 5 5 5 5 6 5 6 6 7 7 9 9 10 11 10 8 5 3 6 5 6 5 5 5 6 3 4 4 7 3 3 3 4 5 5 5 5 4 3 2 1 1 0 -0 -1 -1 -1 -0
6 6 6 7 6 6 6 6 6 6 6 6 6 6 7 8 9 9 7 6 7 2 5 5 6 5 6 3 3 5 3 2 3 3 3 3 3 3 3 3 4 4 4 3 3 2 1 1 0 -0 -1 -0 -1 -1
4 5 5 6 6 6 6 6 6 7 8 8 6 7 7 8 8 3 2 3 2 3 3 3 4 4 6 6 3 4 4 1 4 5 4 3 2 2 2 3 3 3 3 2 2 1 1 0 -0 -0 -1 -2 -2 -2
5 5 5 5 5 5 6 7 7 7 8 9 9 8 7 4 3 3 2 3 3 2 3 4 2 4 4 4 4 3 5 2 5 5 5 2 1 2 2 2 2 1 1 1 0 0 -0 -1 -1 -1 -2 -3 -3 -3
5 6 6 6 6 6 7 7 8 9 10 8 4 2 2 3 1 0 1 1 0 2 3 3 3 2 3 2 1 4 2 4 5 4 3 1 1 1 1 1 1 -0 -0 -0 -0 -1 -1 -1 -2 -3 -3 -3 -3 -3
5 5 6 7 7 7 8 8 8 9 6 2 2 1 0 -1 -1 -1 -0 0 1 2 3 3 2 3 1 2 1 2 3 4 3 2 1 0 0 0 -0 -0 -1 -1 -1 -2 -1 -1 -2 -2 -2 -3 -4 -4 -4 -4
5 5 5 5 6 7 7 8 7 6 2 -0 -1 0 -0 0 -0 -1 -0 -0 1 2 3 4 1 2 2 2 4 3 2 2 2 0 -0 0 0 -1 -1 -2 -2 -2 -3 -2 -2 -3 -3 -4 -4 -4 -5 -5 -4 -5
6 3 3 4 5 6 6 6 5 0 -1 -1 -1 -2 -1 -1 -2 -2 -1 -0 1 1 1 1 2 2 1 3 2 1 1 0 -1 -1 -0 -0 -1 -2 -2 -3 -2 -3 -3 -3 -3 -4 -4 -5 -5 -5 -5 -7 -7 -7
4 3 4 4 5 6 6 3 1 -1 -2 -2 -2 -2 -2 -2 -2 -1 -1 -0 1 1 1 1 2 2 2 2 1 -1 -2 -1 -1 -1 -1 -1 -2 -2 -3 -2 -3 -3 -3 -4 -4 -5 -5 -6 -6 -6 -6 -7 -8 -8
4 4 5 5 5 4 1 0 0 -2 -2 -2 -2 -2 -2 -2 -1 -1 -1 -0 -0 -0 0 -0 -1 -1 -1 -2 -1 -2 -2 -2 -2 -2 -2 -2 -2 -2 -3 -3 -3 -3 -4 -5 -5 -5 -6 -6 -6 -7 -7 -7 -7 -8
4 4 5 5 5 2 -0 -1 -0 -1 -2 -2 -2 -2 -2 -2 -2 -2 -2 -2 -2 -2 -3 -3 -3 -4 -4 -3 -2 -2 -2 -2 -2 -2 -3 -2 -2 -3 -3 -3 -4 -5 -6 -6 -6 -7 -7 -7 -8 -8 -8 -8 -8 -10
4 4 5 5 1 -0 -1 -1 -1 -2 -2 -2 -2 -2 -2 -2 -2 -3 -3 -2 -3 -4 -3 -4 -5 -5 -4 -3 -2 -2 -2 -2 -2 -3 -4 -4 -4 -4 -5 -6 -6 -7 -7 -7 -7 -8 -8 -8 -8 -9 -9 -9 -10 -12
3 4 3 2 -0 -1 -1 -1 -1 -1 -1 -2 -1 -1 -1 -2 -2 -2 -3 -4 -5 -5 -5 -5 -6 -6 -5 -5 -4 -4 -3 -3 -3 -4 -4 -5 -6 -6 -7 -7 -7 -7 -8 -9 -9 -9 -9 -9 -10 -10 -11 -11 -12 -13
3 2 1 -1 -1 -2 -2 -1 -1 -0 -3 -1 -0 -1 -2 -2 -3 -2 -4 -5 -6 -6 -6 -6 -6 -6 -6 -6 -6 -6 -5 -5 -5 -5 -6 -6 -7 -7 -8 -8 -9 -9 -10 -11 -11 -10 -10 -10 -11 -11 -11 -12 -14 -14
2 -1 -2 -2 -3 -3 -2 -1 -1 -1 -1 -2 -3 -3 -4 -3 -2 -3 -6 -7 -8 -7 -7 -7 -6 -8 -7 -7 -8 -8 -8 -7 -8 -8 -8 -8 -8 -9 -9 -10 -10 -11 -12 -12 -12 -12 -12 -12 -12 -13 -13 -14 -15 -17
-2 -4 -3 -5 -2 -2 -5 -2 -2 -4 -5 -4 -4 -5 -4 -2 -5 -6 -6 -8 -10 -9 -9 -8 -8 -9 -10 -10 -10 -10 -9 -9 -9 -9 -10 -11 -10 -11 -11 -12 -12 -13 -13 -12 -12 -12 -12 -13 -13 -14 -15 -16 -18 -18
-4 -5 -4 -4 -4 -3 -3 -3 -4 -5 -5 -7 -4 -3 -3 -5 -7 -8 -8 -10 -11 -11 -11 -10 -10 -10 -10 -11 -11 -10 -11 -11 -10 -10 -11 -11 -11 -12 -12 -13 -13 -13 -12 -12 -13 -13 -14 -14 -15 -16 -17 -18 -19 -19
-4 -4 -4 -4 -4 -3 -3 -2 -2 -5 -7 -6 -5 -5 -4 -7 -9 -9 -11 -11 -12 -12 -11 -11 -11 -12 -12 -13 -12 -12 -12 -12 -12 -12 -12 -12 -12 -12 -13 -13 -13 -14 -14 -14 -14 -14 -15 -16 -17 -18 -18 -19 -19 -20
-5 -4 -4 -4 -4 -3 -4 -4 -5 -6 -5 -6 -5 -9 -9 -10 -11 -11 -12 -12 -12 -12 -12 -12 -12 -12 -13 -13 -13 -13 -13 -13 -14 -14 -14 -13 -14 -14 -14 -14 -14 -14 -15 -16 -17 -18 -18 -18 -19 -19 -19 -20 -20 -20
-5 -4 -4 -5 -4 -5 -6 -5 -6 -7 -8 -7 -8 -10 -11 -13 -13 -13 -13 -12 -12 -13 -13 -13 -14 -14 -14 -14 -14 -14 -14 -14 -14 -14 -14 -15 -16 -15 -16 -16 -17 -18 -18 -18 -19 -20 -20 -21 -21 -21 -21 -21 -21 -22
-5 -4 -3 -4 -5 -6 -7 -7 -8 -9 -9 -9 -11 -13 -14 -15 -15 -14 -14 -14 -14 -14 -15 -15 -15 -14 -15 -15 -15 -14 -14 -14 -15 -15 -15 -16 -16 -16 -17 -18 -18 -18 -19 -19 -20 -20 -20 -21 -21 -22 -22 -22 -22 -22
-6 -5 -4 -5 -7 -7 -8 -8 -8 -9 -9 -10 -10 -12 -15 -15 -15 -15 -15 -15 -15 -15 -15 -16 -15 -15 -15 -15 -15 -16 -16 -16 -15 -16 -16 -17 -17 -18 -18 -18 -19 -19 -20 -21 -22 -21 -22 -22 -22 -22 -23 -23 -23 -23
-6 -6 -5 -8 -7 -8 -8 -7 -7 -8 -9 -10 -11 -12 -13 -13 -16 -16 -16 -16 -16 -16 -17 -17 -16 -16 -16 -16 -17 -17 -17 -17 -17 -18 -18 -17 -18 -18 -19 -19 -19 -20 -20 -20 -21 -21 -22 -22 -23 -23 -23 -23 -23 -23
-6 -6 -6 -6 -7 -7 -8 -8 -7 -9 -10 -11 -12 -12 -13 -15 -16 -17 -18 -17 -17 -17 -17 -17 -17 -18 -18 -18 -18 -18 -18 -19 -19 -19 -19 -19 -19 -19 -20 -20 -20 -20 -21 -21 -21 -22 -22 -23 -23 -23 -24 -24 -23 -23